GFSCGP_500_spd_045.txt.gz
Wind_Speed
22 21 14 7 8 10 11 14 12 13 12 9 8 8 9 7 8 10 10 8 10 11 13 16 20 17 19 22 23 26 25 35 32 31 45 51 49 50 51 51 51 53 52 49
18 17 13 14 9 12 18 14 10 9 7 9 11 10 9 7 7 7 7 9 12 14 17 20 22 22 24 25 23 22 25 37 42 46 47 49 51 52 51 52 53 54 51 47
17 13 12 11 14 13 17 19 15 13 11 11 10 9 7 6 6 7 9 12 15 18 20 23 27 27 28 31 33 35 33 36 43 48 47 51 54 57 53 51 53 53 49 46
23 21 17 18 17 19 17 16 19 19 13 12 10 8 5 6 8 11 13 16 19 21 22 24 26 26 27 30 34 36 38 44 47 47 47 49 51 54 50 50 53 49 47 51
23 26 23 22 21 18 12 15 15 16 19 13 9 10 7 10 11 12 12 14 16 19 21 24 28 30 31 30 33 37 41 43 45 45 47 46 47 47 50 50 48 50 52 56
21 18 18 21 21 16 15 13 14 14 14 13 11 11 5 6 8 9 11 14 17 19 22 25 27 29 31 33 35 36 39 47 52 57 53 43 43 48 48 48 51 54 56 59
19 17 18 19 18 16 16 14 15 15 14 13 8 6 5 6 7 8 10 12 14 15 17 21 25 29 32 35 38 42 46 49 50 49 47 46 48 47 49 52 56 59 62 64
16 18 17 17 15 15 15 15 16 14 10 6 4 1 1 1 4 5 7 9 11 14 18 21 23 26 29 32 34 36 38 41 43 44 47 47 49 51 53 57 61 63 65 69
19 19 18 17 16 16 16 16 13 9 7 4 3 2 3 5 5 8 9 11 14 17 20 23 25 27 29 31 34 37 38 39 41 43 47 50 51 54 57 59 61 64 70 75
16 17 18 18 17 18 16 13 12 10 7 5 5 6 7 7 9 10 11 14 17 19 22 24 26 27 30 31 33 36 39 41 44 46 49 51 54 57 59 62 66 70 75 79
16 18 18 19 18 16 15 12 12 11 9 8 8 8 10 13 15 15 16 17 19 22 24 26 29 31 33 35 36 38 40 43 46 49 51 54 57 60 62 67 73 76 78 84
17 17 15 16 18 17 16 15 14 14 13 14 13 12 14 17 19 19 20 21 24 27 29 32 36 37 39 40 41 41 43 45 48 51 55 57 60 63 69 73 74 79 85 89
17 16 16 16 17 17 17 16 17 17 17 16 18 19 19 21 23 25 26 27 30 32 35 37 40 42 43 45 45 45 46 48 51 54 56 59 64 69 70 73 79 84 87 90
19 18 17 18 20 21 20 21 21 20 20 21 19 23 25 26 27 30 31 33 34 36 37 40 43 45 46 47 47 46 48 50 53 56 59 64 67 68 73 78 83 86 87 89
19 20 20 21 22 24 23 23 22 22 23 25 24 25 29 31 32 34 36 37 39 40 41 43 46 48 48 49 49 50 51 54 56 59 63 65 67 73 77 81 84 86 87 91
14 17 20 22 24 26 27 27 25 25 27 29 31 27 34 34 36 38 40 41 42 44 44 46 50 50 50 51 52 53 54 56 58 62 64 67 72 77 79 82 84 86 89 92
15 17 21 23 25 29 30 25 29 30 31 33 33 34 37 37 39 41 42 43 44 45 47 49 51 51 51 52 54 55 56 57 60 63 67 72 76 77 79 82 85 87 90 86
15 18 21 22 25 30 25 26 31 34 34 36 36 38 40 42 42 43 45 46 47 48 50 52 52 52 54 56 57 57 57 59 62 67 72 74 76 78 81 83 85 88 84 76
17 19 22 24 24 26 25 27 31 35 35 38 40 42 43 44 45 46 47 48 49 50 52 53 54 55 57 57 56 57 59 62 67 71 73 76 78 79 81 83 86 82 74 73
20 22 24 24 26 27 26 26 30 35 36 39 42 44 46 46 47 48 49 50 50 51 53 54 54 56 56 57 58 59 62 66 70 73 75 77 78 80 82 84 81 72 71 67
23 25 26 26 27 29 30 31 33 35 40 42 44 45 46 47 49 50 51 51 52 53 55 55 55 57 57 58 60 63 67 71 73 75 77 78 79 80 83 80 73 69 68 56
24 26 26 28 31 35 34 35 38 40 43 44 45 45 46 49 50 51 51 51 53 55 55 55 57 58 60 61 63 67 71 73 75 76 78 78 79 81 79 72 68 67 60 47
24 26 28 29 31 35 38 40 42 42 44 45 46 47 48 50 50 50 51 53 55 56 56 57 59 60 61 64 68 70 74 73 77 78 77 78 80 79 72 66 65 62 51 41
29 29 31 34 34 38 42 43 43 44 44 45 46 48 48 49 50 52 54 55 57 57 57 57 58 61 65 69 71 73 72 74 80 79 77 78 78 72 65 63 60 54 43 36
33 33 37 39 39 42 41 42 43 43 44 44 45 47 49 50 52 53 54 57 57 56 56 59 62 66 70 71 71 73 76 78 79 77 76 76 72 65 62 59 54 46 38 34
35 37 41 42 41 41 40 39 40 41 43 45 47 49 50 50 51 54 56 56 56 56 59 63 67 70 70 70 72 76 77 80 77 75 75 71 64 60 59 53 47 40 35 32

GFSCGP_500_spd_051.txt.gz
Wind_Speed
18 16 8 12 10 3 4 11 9 8 8 10 9 10 8 4 6 9 9 7 9 9 11 13 13 13 14 17 20 23 26 28 30 34 38 42 45 45 44 48 51 50 51 51
2 2 10 10 13 7 8 10 12 8 3 7 11 10 9 6 6 8 10 11 11 12 13 12 12 15 18 22 23 24 26 28 31 34 38 39 42 45 46 48 50 48 45 42
14 18 12 11 6 8 10 11 8 5 4 7 9 11 8 8 8 9 12 14 14 13 14 16 18 20 22 23 24 26 27 29 31 33 35 37 39 41 44 47 48 48 48 49
21 20 17 3 5 9 13 7 7 9 6 5 4 9 18 9 13 15 15 16 19 19 20 21 21 21 21 21 21 20 21 23 26 29 31 34 36 40 42 45 47 50 49 51
12 10 7 5 9 4 8 4 4 6 9 14 6 10 19 12 21 21 21 23 23 23 23 21 19 16 14 13 15 17 19 21 24 27 30 33 35 38 41 44 48 51 55 57
12 12 14 15 12 12 9 8 8 10 9 12 11 12 13 19 21 23 24 24 22 19 18 14 10 10 12 14 16 19 23 26 29 31 34 37 40 42 45 47 50 53 56 59
18 15 17 17 12 12 12 10 8 8 11 11 17 17 13 30 20 19 16 15 12 11 9 10 11 13 15 17 20 23 27 30 32 34 37 41 43 45 48 50 53 55 58 61
12 14 16 14 12 10 12 12 12 12 10 9 20 14 18 16 14 10 9 9 9 9 11 13 14 17 19 21 24 27 30 32 35 38 41 43 46 49 51 52 53 56 59 61
12 17 17 12 14 14 16 17 18 18 17 18 16 14 14 12 11 11 11 12 13 14 16 18 19 22 24 27 29 32 35 37 40 43 45 47 49 50 52 54 57 59 61 63
18 17 19 16 18 19 20 20 17 19 19 16 7 13 16 14 15 14 15 16 17 19 21 23 26 29 32 34 36 40 43 44 46 48 49 51 53 53 55 56 58 60 61 64
18 18 19 19 19 18 22 22 20 20 19 17 16 10 19 17 17 17 19 19 20 22 24 28 31 34 37 40 42 45 46 49 51 52 53 54 55 56 57 59 60 61 63 66
20 21 23 18 24 22 24 22 22 22 20 20 19 21 18 18 20 21 24 24 27 28 29 32 35 38 40 43 45 46 48 51 53 54 56 57 58 58 60 61 62 63 66 68
19 22 23 25 22 21 22 23 22 23 23 21 23 18 25 25 27 27 28 28 30 32 35 37 40 42 44 46 48 49 51 53 54 56 57 59 59 60 61 62 63 65 69 72
23 24 24 24 16 19 18 21 22 24 24 20 22 22 27 29 31 32 31 33 35 37 40 42 44 47 48 50 51 52 54 56 56 56 58 59 59 61 62 63 65 68 72 75
25 24 24 23 23 21 21 20 22 23 21 27 19 25 26 37 36 36 35 38 39 41 44 47 49 50 51 53 54 55 56 55 55 56 58 60 61 62 64 65 67 70 74 77
19 21 21 22 23 24 24 22 22 22 23 26 25 31 31 38 40 42 42 43 45 46 48 50 51 53 54 55 56 56 55 55 56 58 60 61 62 64 64 68 70 74 77 80
18 20 20 21 22 26 24 19 20 24 25 29 33 32 40 40 42 43 45 46 47 48 50 52 53 53 55 56 56 55 54 56 58 59 61 62 62 64 69 72 76 77 79 79
17 19 20 19 19 22 17 19 22 26 27 31 33 35 40 41 43 43 45 46 47 49 51 51 52 54 55 56 55 54 56 58 58 59 61 62 63 70 74 76 77 79 80 81
17 19 19 20 20 20 18 20 23 26 26 32 31 34 37 38 41 43 46 46 49 50 51 53 54 55 55 54 55 56 58 59 60 61 60 62 67 75 78 79 79 81 81 83
19 19 21 20 22 23 23 21 24 28 30 31 32 34 37 40 42 45 47 48 50 51 52 54 54 54 53 54 56 57 59 59 59 60 63 66 74 76 77 78 80 81 83 82
17 19 21 22 24 24 25 25 26 28 32 33 34 36 39 42 43 47 49 50 51 51 52 52 52 53 54 55 56 58 59 59 60 62 67 72 75 78 79 80 82 82 82 83
14 16 17 20 23 25 23 26 26 29 31 35 38 41 44 46 47 48 48 48 48 49 49 51 53 54 54 56 57 58 60 60 64 67 74 75 77 80 81 82 81 81 83 82
17 17 18 20 24 25 27 29 31 34 37 40 42 45 47 48 48 47 47 48 48 50 51 52 53 55 56 57 59 60 59 60 66 71 73 75 81 82 83 81 81 81 79 70
22 22 25 26 30 32 34 36 38 40 42 44 46 47 48 49 48 48 48 49 51 52 53 54 55 56 57 59 60 57 62 67 73 75 72 78 79 81 80 79 79 76 67 59
27 27 30 31 35 37 39 39 42 44 45 46 46 46 46 46 47 48 50 51 52 54 54 55 56 56 56 58 59 63 69 73 72 74 79 80 81 79 78 77 72 64 57 52
31 34 35 37 37 40 43 44 45 46 47 46 46 45 46 47 49 51 51 52 53 54 54 55 55 54 57 65 69 70 70 71 74 77 80 78 77 77 76 69 61 56 52 50

GFSCGP_500_spd_054.txt.gz
Wind_Speed
21 17 10 19 13 5 11 1 2 2 3 11 7 9 6 7 8 13 5 3 3 3 4 5 8 10 12 14 12 18 19 22 24 25 27 27 28 29 31 33 34 35 37 38
13 6 12 4 1 4 5 11 10 9 4 7 6 15 8 3 3 7 8 7 8 7 10 10 12 13 15 19 18 19 19 21 23 23 23 25 26 29 31 33 35 37 39 41
14 10 14 9 10 8 6 16 23 11 5 3 11 11 3 5 5 9 11 12 11 12 14 15 16 16 20 20 20 17 19 18 19 20 22 25 28 31 33 36 37 41 42 44
12 6 17 16 11 7 15 4 17 7 3 7 12 17 28 11 9 9 13 18 19 18 17 20 20 20 21 21 19 15 15 16 19 22 25 30 33 36 39 41 43 44 45 47
15 1 10 7 9 15 13 8 8 6 10 21 18 19 8 20 17 14 15 20 25 27 25 24 24 20 20 16 13 15 16 19 23 27 29 33 37 39 42 45 47 49 50 51
22 14 10 21 14 8 4 11 7 5 11 19 12 4 19 22 16 9 9 20 27 28 26 21 19 13 11 13 15 18 21 23 26 30 33 36 40 43 45 47 50 51 53 55
22 12 7 12 15 13 11 8 7 16 10 6 8 13 20 20 21 24 12 17 20 19 16 12 11 12 14 16 19 22 25 28 31 34 38 41 44 47 49 52 53 55 56 58
9 10 11 13 14 14 13 9 16 9 9 7 16 15 16 24 17 23 19 13 12 12 12 13 14 15 19 21 24 29 31 34 37 41 44 47 49 52 52 53 55 56 57 59
26 28 24 10 15 13 2 15 15 10 15 15 15 10 17 19 18 15 14 13 14 15 17 19 20 23 23 27 31 35 39 40 40 45 48 50 52 54 55 56 57 57 59 60
24 20 11 9 12 13 15 15 12 15 16 16 7 10 24 12 16 17 16 16 17 18 20 23 25 27 31 32 34 38 43 44 45 48 50 52 55 56 57 58 58 59 60 61
17 9 11 14 15 13 15 19 19 17 16 17 10 8 17 24 21 19 20 19 21 23 26 28 31 32 34 38 39 41 46 47 49 50 53 55 56 56 57 58 59 61 61 63
18 20 24 14 17 16 18 19 20 21 19 24 22 24 20 23 23 22 23 23 24 27 30 31 35 36 39 42 44 46 50 51 53 53 55 56 56 54 56 58 61 61 64 65
23 20 19 16 19 15 17 20 23 25 26 23 23 19 24 27 28 29 29 32 31 33 35 37 39 42 44 46 48 50 52 53 54 56 57 58 56 56 58 60 62 64 66 66
20 18 20 20 17 22 20 20 24 26 30 21 23 20 24 28 31 33 28 31 36 37 39 42 44 46 48 50 51 54 54 55 56 57 57 57 57 58 60 62 64 66 66 68
22 22 22 24 24 27 24 24 20 23 22 24 18 22 22 17 38 39 30 33 38 40 43 47 49 51 52 52 54 55 55 56 56 57 56 57 58 59 61 63 64 64 67 72
24 25 28 27 26 28 25 27 23 21 22 25 23 25 24 33 39 43 41 45 44 47 48 50 51 52 54 54 54 56 56 57 56 56 56 57 58 60 62 62 62 65 71 76
22 21 23 22 25 26 27 23 25 23 24 26 27 26 30 36 41 38 40 45 46 47 48 50 52 54 55 57 56 57 57 56 56 57 58 59 61 61 61 63 63 69 73 78
21 21 22 19 24 26 19 20 22 24 24 26 29 29 31 37 36 37 40 41 43 45 49 51 53 55 56 57 56 55 56 56 57 58 59 61 61 60 63 66 69 74 76 81
21 20 20 21 22 20 20 19 18 23 23 30 27 28 34 33 36 39 40 42 45 47 50 52 53 54 55 54 54 53 56 58 59 60 61 60 58 61 69 74 74 78 83 84
19 20 21 20 21 21 22 20 20 23 26 26 27 30 33 34 37 40 42 45 49 51 53 53 52 53 53 53 54 56 58 58 59 59 60 62 60 67 74 74 81 82 84 83
17 20 21 22 23 22 24 18 23 25 27 27 28 30 32 35 38 43 47 49 51 53 50 51 51 51 53 54 55 57 57 58 58 62 65 63 63 69 74 81 83 85 86 88
17 16 18 20 20 21 19 21 21 23 25 28 31 34 38 41 43 47 49 51 51 49 50 50 51 53 54 54 54 55 57 55 58 67 69 69 69 76 79 79 83 86 86 83
18 17 17 18 20 19 21 22 23 27 30 34 36 40 42 45 47 50 51 50 50 49 50 52 53 53 54 54 54 56 55 51 59 68 71 70 73 76 79 83 82 81 81 76
20 21 22 23 24 27 26 27 30 34 36 39 41 44 46 49 53 50 50 49 50 51 52 53 54 54 54 55 57 57 57 61 64 70 74 80 82 80 79 79 78 77 74 71
27 25 26 28 29 33 34 32 36 39 41 43 45 47 49 50 50 51 50 50 51 51 52 53 54 55 57 59 60 61 63 66 70 72 76 77 78 77 76 75 72 74 70 65
31 31 32 33 33 37 39 40 41 43 45 46 48 48 48 48 48 49 50 50 51 52 54 54 56 59 61 62 65 68 69 69 70 71 72 72 72 73 73 74 75 74 67 59

GFSCGP_500_spd_057.txt.gz
Wind_Speed
14 14 10 9 15 12 9 5 5 9 7 9 2 6 5 6 3 6 8 10 7 6 5 4 5 5 1 5 10 15 17 16 17 16 18 15 16 19 22 25 28 30 32 34
10 11 12 5 13 11 5 6 8 2 4 3 6 3 4 8 3 4 4 5 2 5 6 4 8 9 9 12 14 14 13 16 16 14 14 17 20 23 26 28 30 33 36 38
6 4 9 16 14 3 4 11 13 12 12 7 8 12 17 9 13 5 2 5 1 5 11 12 13 16 16 15 12 12 11 9 10 13 17 21 23 25 28 31 34 38 41 42
2 2 16 25 9 0 4 14 22 21 12 10 17 20 17 7 10 10 9 8 7 9 12 15 18 20 19 17 10 9 11 13 16 17 21 24 26 30 33 37 40 43 45 46
5 7 19 19 15 9 2 7 20 16 7 10 10 18 17 14 14 12 12 15 15 12 13 12 16 19 18 13 11 12 13 17 21 23 27 30 33 37 41 44 46 48 50 51
8 7 12 10 4 1 3 2 14 15 14 15 7 20 9 14 15 16 7 13 16 15 13 10 10 10 12 12 14 15 19 23 26 28 32 36 40 44 47 50 51 54 55 56
14 14 13 2 5 6 7 14 18 18 17 11 13 17 9 16 13 11 9 13 14 15 13 9 6 8 12 15 18 20 23 26 30 34 37 40 43 46 49 51 53 54 54 55
13 12 11 6 5 12 12 22 23 19 10 17 13 11 15 14 13 11 11 11 9 10 11 12 11 13 16 19 23 27 29 31 33 37 41 44 46 49 50 52 55 57 57 57
19 17 16 20 16 15 18 20 17 12 13 9 12 14 16 13 14 15 13 11 12 14 15 15 16 18 22 24 26 31 34 35 35 39 44 46 49 50 50 52 55 56 57 57
20 19 22 14 12 14 10 11 3 13 14 13 11 14 18 10 16 14 12 15 16 17 20 21 22 23 24 27 31 36 39 41 41 43 46 48 50 51 54 55 56 55 55 57
24 21 19 27 19 16 11 14 18 18 18 16 11 18 15 13 11 16 19 19 19 20 22 25 27 29 31 32 34 36 41 45 47 50 52 53 54 55 57 57 57 56 57 59
26 18 19 11 14 8 12 16 18 18 16 21 21 15 21 23 20 23 26 24 23 25 28 30 33 35 37 39 41 43 45 47 50 53 54 56 57 57 58 58 58 58 60 61
19 21 17 15 12 18 17 18 18 21 23 21 24 19 17 23 28 30 31 33 30 29 31 33 36 38 40 42 45 46 48 49 50 53 55 56 57 57 57 57 58 61 61 63
21 22 19 18 19 21 22 20 19 22 27 26 24 21 17 21 27 31 34 34 32 30 34 38 41 43 44 43 46 46 46 48 54 55 55 57 57 57 57 59 60 61 62 62
25 24 23 21 22 24 28 25 22 23 20 22 16 20 16 23 29 32 37 35 31 34 39 41 44 44 36 42 43 49 52 52 55 55 57 57 56 57 58 59 61 61 59 64
24 23 24 26 26 28 28 27 21 27 25 22 20 19 19 26 31 35 40 40 41 43 45 43 40 38 49 50 51 51 53 54 55 55 56 55 57 59 59 59 60 60 60 64
24 25 26 26 25 27 28 19 25 25 24 24 25 26 26 30 32 34 34 37 41 44 45 46 47 48 50 52 53 54 55 55 54 55 55 57 58 59 60 60 61 64 67 70
24 24 24 23 25 28 22 25 24 23 25 27 28 27 26 28 32 34 34 35 37 40 43 45 48 51 53 56 56 55 53 54 55 56 56 56 57 57 61 66 67 71 76 79
22 22 24 24 24 23 22 20 17 17 22 23 23 26 26 29 32 34 36 37 39 41 43 46 48 51 54 54 52 52 54 56 57 56 56 57 59 60 62 72 66 74 80 78
21 20 23 24 23 22 20 19 17 19 25 21 23 26 28 30 32 34 36 37 40 43 46 49 51 51 50 50 51 53 55 55 55 57 58 60 60 60 62 69 75 85 82 81
20 20 21 23 24 22 23 18 21 24 24 24 26 25 26 28 31 34 37 40 43 45 48 49 49 49 50 50 52 53 54 55 56 57 59 61 62 68 69 73 78 82 85 84
21 21 18 19 20 21 21 20 20 21 22 24 25 26 30 33 36 38 41 43 46 49 49 49 49 49 51 52 53 55 56 57 57 60 61 62 64 67 72 77 79 81 81 78
22 21 18 18 17 17 17 16 16 22 24 26 28 32 35 37 40 42 44 46 47 49 50 50 51 53 54 55 56 56 57 59 61 62 64 67 70 72 74 75 74 72 74 73
26 22 21 20 21 23 22 21 23 28 30 32 34 37 39 42 44 45 45 45 47 47 49 51 52 53 55 55 57 59 61 63 66 68 70 72 72 72 72 69 70 69 71 72
30 28 25 24 25 27 28 29 30 32 34 36 39 41 43 45 47 48 49 48 49 50 51 52 54 55 55 58 60 62 65 68 70 71 72 72 71 70 70 68 68 71 72 74
33 32 29 29 29 31 33 35 36 38 41 42 43 44 45 46 47 47 49 51 52 52 54 54 54 56 58 60 64 67 69 69 70 71 72 71 69 67 66 67 71 72 72 72

GFSCGP_500_spd_060.txt.gz
Wind_Speed
1 5 12 4 19 18 18 15 17 11 12 10 9 4 8 7 5 2 7 7 5 11 12 12 9 5 1 4 7 11 11 10 11 12 13 10 10 12 17 19 22 24 26 30
6 10 11 18 14 13 9 10 11 8 10 9 1 3 4 3 3 1 3 5 1 4 6 5 6 6 5 7 8 10 12 11 12 10 9 11 14 17 21 23 27 31 35 38
3 6 9 11 11 7 9 13 13 8 4 6 3 9 4 2 4 2 2 4 4 9 11 9 8 7 7 8 8 8 11 8 7 10 13 15 18 22 26 29 33 37 40 42
1 4 14 20 16 11 5 12 11 7 5 4 12 13 11 5 8 6 7 5 3 4 8 11 10 8 7 8 8 6 6 7 10 14 18 21 24 27 31 35 38 41 44 45
3 6 10 19 17 4 6 13 16 14 14 16 14 15 7 14 18 12 8 8 5 4 4 5 9 11 10 7 6 7 8 12 15 19 23 26 29 33 37 40 42 44 46 47
6 9 17 17 5 3 7 15 24 21 19 14 11 18 7 11 8 7 7 5 6 5 3 3 8 10 10 7 10 11 14 17 21 25 29 32 34 37 40 43 46 48 50 51
10 12 18 14 12 11 6 13 18 18 22 18 18 21 11 10 7 4 5 7 5 5 2 2 5 6 9 11 14 17 20 23 27 30 34 38 40 42 44 47 50 53 54 56
12 16 18 11 15 16 15 14 20 21 21 18 22 21 13 6 5 8 7 4 5 4 3 4 7 10 14 16 19 21 24 26 30 34 39 43 45 46 48 51 54 55 56 57
20 23 21 18 17 19 15 13 17 24 22 22 16 20 19 14 11 12 7 3 6 7 8 8 11 14 17 20 24 26 28 30 34 37 42 45 47 49 51 51 51 53 54 58
21 21 20 20 14 22 15 16 15 25 20 19 17 18 22 17 13 11 9 10 10 11 11 12 15 17 21 25 28 30 33 35 37 40 44 47 49 50 50 51 52 55 56 58
21 21 20 17 21 15 19 13 17 17 17 17 18 18 19 17 14 15 16 14 16 17 17 18 19 22 25 29 32 35 37 40 42 43 44 45 47 47 42 50 57 56 57 57
20 22 21 15 14 26 26 20 15 16 16 21 21 19 18 18 19 19 21 22 22 23 23 25 26 29 31 32 33 37 41 42 41 44 47 50 50 50 44 59 60 60 59 60
20 21 22 19 14 16 23 22 18 21 23 23 25 22 17 23 24 24 29 30 28 26 27 29 30 32 35 36 38 41 38 39 44 48 49 49 54 55 59 59 60 61 61 63
25 25 23 20 17 22 24 22 22 25 26 25 24 23 22 25 26 27 30 29 29 26 27 30 31 34 37 39 37 34 36 41 46 45 52 57 57 58 58 58 60 61 63 64
33 28 23 22 22 23 25 26 24 26 27 27 22 19 17 24 27 28 30 31 30 28 31 33 32 33 32 33 34 37 39 47 48 55 57 58 58 57 58 60 61 61 63 65
30 27 27 27 25 26 27 30 29 26 25 28 26 22 22 21 25 27 29 31 32 33 34 35 27 31 31 34 36 41 46 55 54 55 56 57 57 57 59 60 62 62 64 65
28 29 27 27 27 28 32 29 30 29 27 30 28 26 23 25 25 26 27 30 32 34 37 36 35 35 37 43 44 51 52 52 53 55 55 55 58 58 60 61 62 63 64 67
31 30 29 28 30 33 24 26 25 26 26 28 28 28 25 26 26 27 28 30 32 34 37 39 40 42 45 48 50 50 52 53 53 53 55 57 57 59 61 61 64 66 69 72
32 29 28 30 28 28 24 25 24 24 25 26 24 23 22 23 26 29 29 31 34 36 37 38 41 44 46 48 49 51 51 52 54 55 56 58 60 61 63 64 67 70 72 73
30 27 28 29 28 27 22 25 23 23 26 22 20 22 24 26 29 30 32 33 34 35 37 39 42 45 47 48 49 50 52 53 55 55 58 59 60 63 65 68 71 71 72 76
29 31 29 27 28 26 22 23 25 25 20 21 23 24 26 29 30 30 32 34 35 37 40 43 44 45 46 48 50 51 53 55 56 57 58 60 63 65 68 70 72 75 76 75
31 30 27 26 25 23 19 22 23 21 22 22 23 24 24 26 28 31 33 35 38 41 43 44 46 47 48 49 51 52 54 56 56 58 61 63 66 69 71 73 76 76 74 71
36 31 30 27 25 22 18 14 17 18 19 20 22 25 27 30 32 34 37 40 42 45 46 47 47 48 50 51 53 55 55 56 59 61 64 67 70 70 71 74 75 74 69 70
39 36 31 29 27 24 20 18 19 21 22 24 27 30 32 34 36 38 41 43 46 47 47 48 49 51 52 53 54 55 56 59 61 65 68 69 70 72 74 76 74 71 71 72
39 40 34 32 29 28 26 24 24 25 27 30 32 34 37 39 41 43 45 46 47 47 48 49 51 53 53 53 54 56 59 63 65 66 66 68 72 74 75 74 72 72 71 74
41 40 37 35 34 34 33 31 30 31 34 36 37 38 40 41 43 45 47 48 49 50 51 53 54 54 53 55 57 60 63 65 65 66 69 73 75 74 72 71 70 71 72 73

GFSCGP_500_spd_063.txt.gz
Wind_Speed
3 2 8 10 12 14 6 4 14 17 18 15 11 9 4 8 9 13 12 8 9 9 8 4 4 1 3 4 6 5 1 4 5 7 8 6 5 8 13 15 17 20 24 27
3 3 8 9 10 15 13 19 16 15 13 12 11 8 6 2 8 12 7 8 8 8 8 8 6 3 2 3 5 5 5 4 7 9 6 7 10 14 17 18 22 26 30 33
4 11 9 15 17 14 15 10 10 10 10 11 11 10 4 4 4 7 7 8 5 6 5 5 5 5 6 6 6 6 8 9 9 7 10 12 14 19 21 24 28 32 35 38
6 11 5 15 8 11 10 15 14 11 8 4 4 7 2 4 7 4 2 6 5 8 7 7 8 8 7 7 7 8 9 8 8 11 14 16 20 23 26 30 33 37 40 43
8 9 14 17 9 7 8 9 15 14 6 8 7 4 4 7 9 4 5 7 8 9 5 8 9 9 11 9 8 7 8 9 9 14 18 23 26 29 31 34 38 42 45 47
11 9 14 18 17 9 6 8 16 14 14 13 12 10 5 9 7 4 11 11 7 8 10 11 11 10 9 8 9 8 8 11 15 19 24 28 30 34 36 39 42 45 47 49
20 13 15 17 18 16 10 13 14 15 18 17 18 18 9 8 8 7 9 8 7 4 6 6 5 4 7 7 8 9 13 16 20 24 28 32 36 38 40 43 46 47 49 51
20 19 20 21 19 16 20 17 15 17 19 22 23 21 15 12 11 10 12 12 6 5 6 6 7 9 10 11 12 16 17 21 25 29 33 36 40 42 44 47 48 48 50 51
25 23 25 26 20 17 18 19 20 23 22 23 19 17 13 15 15 14 14 13 10 10 9 10 11 12 12 13 16 19 22 25 29 33 37 41 44 46 47 48 49 51 52 53
26 27 28 28 23 19 17 20 20 20 21 23 21 21 19 16 18 19 14 16 17 15 12 12 14 14 14 16 20 24 27 31 34 38 42 46 48 47 48 49 51 46 44 54
28 30 28 28 28 16 17 16 16 17 22 18 19 19 23 18 17 19 17 19 18 17 17 16 17 18 20 23 26 30 34 37 40 44 47 47 45 47 49 51 49 50 57 56
29 30 27 28 22 21 22 23 22 21 19 22 23 22 21 18 18 19 20 21 22 23 21 21 22 23 26 28 31 35 39 42 45 46 43 42 43 45 48 53 50 55 58 60
27 27 26 24 25 20 16 18 26 24 25 27 26 19 18 19 22 25 26 28 29 30 28 26 27 30 31 34 37 39 42 42 42 39 43 44 44 52 55 59 58 59 60 63
27 27 27 22 22 22 20 18 24 26 30 29 24 22 20 21 26 30 29 29 30 29 25 25 26 29 34 37 39 42 36 37 34 38 45 47 51 59 60 59 59 61 63 65
26 28 26 29 28 24 26 23 27 31 30 27 25 27 24 23 26 29 28 27 29 25 24 26 28 31 33 31 34 37 37 38 36 43 48 52 60 59 59 59 60 63 65 65
26 28 29 29 26 25 27 27 30 31 29 26 28 32 31 25 27 27 26 25 25 26 26 28 31 31 30 29 33 35 40 37 42 42 54 58 57 58 59 60 62 63 64 65
30 30 28 26 29 31 30 26 28 30 33 34 34 31 30 26 24 25 25 25 27 29 30 31 32 31 33 34 38 33 34 38 46 53 56 56 56 57 60 61 61 63 64 67
29 25 27 27 31 35 27 29 31 33 33 31 30 29 28 27 27 28 27 27 27 28 30 31 33 33 36 38 33 41 47 50 53 54 54 55 57 58 60 61 62 64 66 70
32 29 32 32 32 34 31 30 32 31 30 28 28 26 24 25 24 25 26 26 27 28 31 33 34 36 39 42 44 46 49 51 51 52 54 56 57 58 59 60 64 67 70 72
28 28 31 31 31 34 31 29 32 33 32 25 23 24 26 25 25 25 26 27 29 30 31 34 37 39 41 43 46 48 48 49 52 54 55 57 57 58 60 63 67 71 72 73
28 30 33 32 35 33 29 30 30 34 25 24 24 26 27 28 27 27 28 28 29 32 34 36 38 41 43 45 46 48 50 51 53 54 56 56 57 60 64 68 70 71 73 74
28 30 32 32 34 32 27 27 29 25 28 27 27 27 27 26 26 26 28 30 32 34 36 38 40 42 44 46 48 49 51 52 54 55 55 58 60 64 67 68 70 72 74 77
31 31 33 34 33 30 26 24 24 23 24 24 23 23 24 24 26 27 30 32 34 36 39 41 43 45 47 48 49 51 53 54 54 55 58 60 64 66 67 69 71 75 78 78
32 32 37 36 32 29 28 25 23 23 23 23 24 25 27 28 29 31 33 35 38 40 42 44 46 47 49 50 51 52 52 53 55 57 60 63 64 66 68 72 75 78 80 79
37 36 38 36 36 32 33 29 27 26 27 28 29 30 31 32 34 36 38 40 41 43 45 47 48 49 50 51 51 52 53 55 57 61 62 63 65 68 70 74 77 79 78 77
40 30 37 33 33 37 35 34 31 31 32 33 34 35 36 38 40 41 42 42 45 47 48 49 50 51 51 52 53 54 55 59 61 62 63 65 68 71 75 78 79 80 79 76

GFSCGP_500_spd_066.txt.gz
Wind_Speed
4 9 9 10 9 11 13 12 5 14 14 14 12 11 9 9 8 8 8 10 13 15 12 11 10 8 8 8 8 8 9 8 8 8 7 7 7 7 9 12 14 16 19 23
8 14 11 8 8 4 6 9 11 13 19 15 12 12 7 5 9 7 7 8 9 7 7 9 10 10 9 9 10 11 9 9 9 10 8 7 8 9 12 15 18 21 24 28
7 10 5 5 10 8 13 14 14 16 15 15 13 8 7 6 9 9 6 4 7 9 9 7 6 6 6 7 8 8 9 10 9 8 8 9 10 12 15 18 22 26 30 33
5 7 4 10 10 8 8 9 12 12 11 8 9 4 4 7 13 6 4 7 8 6 4 8 10 10 11 12 11 11 12 9 8 10 11 12 13 16 19 24 27 31 35 38
9 12 9 13 11 11 8 6 11 12 12 12 6 7 7 8 9 10 7 10 12 11 9 8 10 8 13 14 12 11 12 12 11 13 15 16 18 20 24 28 32 36 39 42
12 16 15 19 18 12 10 10 11 14 18 14 8 5 3 3 6 11 14 13 17 16 15 15 15 14 15 14 12 11 10 13 12 14 19 20 22 25 31 32 36 40 43 46
16 15 20 17 24 21 15 12 13 14 16 15 14 14 7 11 8 7 9 6 18 17 19 20 18 16 15 13 13 14 12 14 14 16 19 23 27 32 33 36 40 44 47 49
19 21 19 20 23 26 23 18 14 17 17 17 19 19 12 17 18 13 9 10 13 15 19 18 17 15 15 16 18 14 10 14 16 20 24 26 32 34 38 43 45 48 49 48
20 24 25 23 24 26 22 20 20 21 21 22 20 22 17 13 16 16 15 14 14 13 18 16 14 14 14 16 19 11 14 18 21 25 28 33 36 38 44 47 47 45 48 49
16 24 27 29 30 30 25 24 23 21 23 22 19 19 19 15 12 16 19 19 18 20 18 15 16 16 17 19 18 19 21 24 27 31 35 38 40 45 48 48 46 49 53 53
17 20 25 27 33 32 27 26 23 24 24 23 15 12 18 15 18 18 21 22 23 23 22 20 20 20 20 22 24 22 26 30 32 35 40 43 47 47 46 50 52 54 56 59
19 23 26 24 30 34 34 32 27 27 24 22 20 16 14 17 18 19 20 22 22 23 23 24 23 24 25 27 25 29 33 35 38 41 43 45 44 47 49 50 48 43 57 68
22 23 23 22 26 31 36 30 31 34 29 31 27 15 17 18 21 21 24 27 27 28 25 25 28 29 30 33 33 36 37 38 39 42 43 41 47 48 50 51 53 50 65 64
25 24 21 18 16 19 27 29 24 26 29 22 18 20 19 21 22 26 29 28 29 31 32 27 27 27 29 32 34 36 39 39 38 39 41 44 47 47 54 57 59 64 63 63
27 26 22 22 23 25 27 26 29 29 25 24 19 23 22 23 24 24 28 27 22 24 26 24 25 27 29 31 31 33 34 35 36 39 42 38 46 52 57 60 65 63 63 64
26 26 22 25 26 28 29 26 31 31 30 26 27 26 24 27 28 26 26 30 28 26 23 25 27 29 29 30 32 32 34 35 40 41 38 45 52 56 60 62 62 62 64 65
28 28 27 27 25 28 27 19 26 28 29 30 30 28 31 27 27 26 26 28 28 28 28 28 28 29 30 30 32 33 33 40 38 41 47 51 55 56 58 59 62 63 65 65
29 29 30 30 27 32 17 20 22 26 27 31 33 31 30 30 29 29 28 29 29 29 28 28 29 30 30 31 31 34 37 40 42 45 48 51 54 55 58 60 63 64 64 65
30 29 32 32 28 29 20 20 24 27 27 30 28 29 29 30 30 27 27 26 25 25 27 28 30 29 30 33 36 38 41 44 46 48 50 52 54 56 58 61 62 62 63 66
30 32 33 33 33 29 20 24 25 28 26 27 26 28 31 31 30 28 26 26 26 26 27 28 28 30 33 36 38 41 43 45 47 49 51 53 55 58 60 60 61 63 67 69
32 32 32 30 33 28 24 24 26 28 27 27 27 29 31 31 30 28 27 27 27 26 27 28 30 32 35 37 40 43 45 47 49 51 53 55 57 58 59 61 63 67 68 69
33 31 31 29 32 29 21 24 26 26 26 26 26 27 29 29 28 27 26 25 26 28 30 31 33 36 38 40 42 45 47 50 52 54 55 56 57 59 60 63 66 67 69 71
35 30 29 31 30 27 26 24 27 27 25 24 23 21 21 22 23 25 27 29 30 32 34 35 37 39 41 43 46 48 50 52 53 55 55 57 58 60 64 66 67 69 72 75
36 31 31 34 29 26 27 27 30 29 26 26 25 23 21 23 25 27 30 33 34 36 39 40 41 43 45 47 49 51 52 53 54 55 56 58 61 64 66 68 70 72 75 78
34 35 31 33 32 28 30 31 35 32 30 30 29 28 28 28 29 32 34 36 37 40 42 44 45 46 49 51 52 52 53 54 55 56 58 61 64 65 67 68 70 73 77 81
34 30 27 23 29 36 29 35 35 33 32 35 34 34 33 34 35 36 37 39 41 43 45 46 48 49 51 52 52 53 55 56 57 59 62 64 65 66 68 70 72 76 79 82

GFSCGP_500_spd_069.txt.gz
Wind_Speed
11 12 9 10 10 11 7 5 10 12 7 6 11 8 9 9 5 7 8 11 12 11 11 12 14 12 11 11 11 13 13 14 15 15 17 17 16 15 14 13 11 11 14 18
10 12 10 11 8 6 8 7 8 11 12 14 12 10 6 7 8 5 5 7 10 11 11 13 13 14 14 14 15 16 16 16 17 17 17 17 16 15 14 12 12 14 18 22
10 9 7 5 5 5 6 7 9 7 8 13 10 8 7 6 7 9 4 3 4 8 13 14 15 15 15 15 14 14 13 13 12 14 15 15 15 15 14 13 15 17 22 26
12 7 5 5 9 6 5 4 3 5 8 11 9 9 7 8 9 5 3 6 8 8 9 9 8 10 11 10 10 10 11 12 14 15 13 14 15 18 19 15 18 21 25 30
16 9 9 9 10 8 7 8 9 11 10 8 6 7 13 8 11 7 9 11 12 12 12 11 11 9 10 11 12 13 13 13 13 16 16 17 18 21 18 16 23 25 30 34
16 14 17 16 14 13 12 12 10 12 13 11 11 7 8 9 13 14 16 17 17 19 17 17 15 14 15 15 14 14 15 16 15 17 19 19 22 24 18 22 27 28 34 39
15 17 18 19 19 19 18 15 13 13 13 12 12 10 9 9 10 12 11 14 16 24 22 21 22 21 15 18 17 17 18 18 18 21 19 21 24 25 24 27 32 31 41 42
16 17 20 15 18 23 23 22 19 16 13 12 13 14 11 13 15 15 11 13 13 15 17 20 23 22 18 17 18 20 21 24 18 21 20 22 24 27 27 34 34 40 44 43
19 18 21 21 20 24 24 24 23 24 21 19 16 16 16 17 15 12 15 14 11 14 18 21 21 21 18 17 18 20 24 17 17 22 24 27 28 30 33 31 39 46 46 41
22 21 21 25 26 25 26 25 24 26 25 22 18 14 16 16 15 13 16 19 17 17 16 19 22 23 22 22 20 20 22 24 23 25 28 30 32 34 35 36 41 42 39 46
21 21 21 23 27 24 26 29 31 30 27 26 22 16 15 11 16 16 17 19 21 21 20 20 23 24 24 23 24 25 26 30 29 31 33 35 37 39 36 33 44 42 49 51
18 21 22 21 25 27 28 29 32 33 30 31 26 20 17 15 14 17 17 21 22 24 25 24 24 26 26 26 28 29 29 31 36 36 36 39 39 35 35 40 41 52 46 50
20 20 19 23 25 24 28 25 29 32 34 33 33 31 24 16 17 19 21 23 24 25 26 26 26 27 30 33 33 35 36 34 35 35 37 36 30 33 34 44 41 40 50 58
27 22 18 17 15 20 24 21 25 31 30 28 26 21 17 17 18 20 23 24 25 27 29 31 30 28 32 33 33 32 33 34 34 33 30 33 30 34 41 51 41 43 61 66
29 25 20 16 19 23 22 21 25 27 25 30 19 16 14 18 19 22 25 28 28 28 26 26 26 28 32 32 29 30 33 32 31 33 34 33 36 40 43 45 45 61 66 66
32 28 22 20 20 22 22 22 25 25 24 29 24 17 19 21 21 23 28 29 30 30 29 28 27 27 28 31 29 31 31 32 33 33 34 37 39 32 43 52 58 63 68 66
34 30 24 24 24 24 22 16 21 24 24 25 24 20 21 24 26 25 25 28 30 30 29 29 30 29 28 30 30 31 32 32 32 33 37 41 43 44 48 51 55 59 61 63
35 33 30 29 29 32 13 18 20 21 20 21 22 23 24 25 25 26 27 28 29 29 29 29 29 29 29 29 30 32 31 32 33 36 39 42 45 48 51 54 58 61 62 63
35 32 32 33 29 27 17 14 19 22 14 18 23 24 25 25 26 27 26 26 25 24 23 23 24 26 27 29 29 30 32 34 37 40 43 46 49 52 54 56 57 59 61 63
39 34 34 34 34 28 12 19 23 25 11 22 20 22 23 24 25 26 25 25 23 22 23 24 25 25 25 28 30 32 35 37 40 42 46 49 52 53 55 57 59 60 62 63
40 35 35 33 33 28 17 20 23 26 20 22 22 23 23 23 24 24 24 23 24 23 22 22 23 25 28 30 32 35 37 39 42 45 48 51 53 55 57 58 60 61 63 65
39 36 33 33 34 29 19 23 24 24 23 23 23 23 23 23 23 22 22 21 21 21 23 24 26 28 31 34 36 38 41 44 46 49 52 54 55 56 57 59 61 63 65 68
40 37 34 31 31 28 22 23 24 25 26 25 24 23 22 21 21 21 21 23 23 25 27 29 31 33 35 38 40 42 45 47 50 52 54 55 56 57 59 60 62 66 69 70
44 35 38 32 26 29 27 24 26 28 31 29 27 26 25 24 24 24 26 28 30 31 33 35 37 38 40 42 44 46 48 50 53 54 55 56 57 58 59 62 66 68 71 73
42 42 40 35 28 29 31 30 30 32 34 32 30 29 28 29 30 30 31 33 34 36 39 40 42 44 46 48 49 50 52 53 55 55 55 56 56 58 62 66 68 70 72 74
40 39 37 32 28 37 28 28 35 37 37 33 31 30 31 34 35 36 37 40 41 41 43 45 47 48 49 50 51 52 54 55 55 55 56 56 57 61 65 68 70 71 73 76

GFSCGP_500_spd_072.txt.gz
Wind_Speed
10 9 8 9 9 10 6 7 10 12 9 10 11 15 14 6 1 3 2 5 12 11 11 12 16 18 16 12 12 11 10 11 11 12 13 15 17 17 17 17 17 14 12 12
11 10 8 10 9 5 2 6 12 11 9 6 12 5 3 4 3 1 2 1 2 5 9 6 8 11 11 12 12 12 13 13 13 14 16 17 19 19 19 18 18 15 14 16
11 11 8 9 7 4 3 2 3 4 6 7 7 6 7 5 5 5 1 1 2 3 8 9 9 10 10 11 12 12 13 13 15 16 16 16 18 19 20 20 18 17 17 20
11 13 9 8 6 5 3 2 1 2 3 3 5 4 11 9 9 5 3 4 5 5 6 6 8 9 9 11 12 12 13 15 16 16 17 18 18 19 19 21 23 21 19 23
11 17 12 9 8 10 8 4 3 4 3 2 4 10 12 10 11 7 7 9 9 10 11 11 11 11 13 13 14 13 13 15 16 17 19 19 18 18 21 25 25 27 22 27
14 17 15 14 10 13 11 9 6 5 6 9 10 8 9 11 15 12 12 15 17 16 13 16 16 15 16 16 15 15 16 17 17 18 22 23 22 23 25 28 27 20 25 30
13 17 18 17 15 16 17 14 9 11 10 7 9 7 12 13 15 17 17 14 16 17 17 21 19 18 20 19 19 18 19 20 20 20 23 26 24 22 19 27 32 30 32 34
16 17 19 18 18 20 24 21 14 11 10 11 12 7 11 19 21 20 18 18 17 18 18 17 18 20 21 20 21 21 20 19 21 28 27 24 22 21 24 31 37 36 36 35
20 19 15 18 20 20 22 24 23 22 21 20 18 16 14 16 17 21 18 24 19 17 16 17 20 23 23 20 20 21 21 22 25 23 22 23 23 27 32 35 37 38 40 40
24 24 22 20 21 25 23 23 23 24 23 23 22 17 17 17 17 17 19 19 23 21 18 17 20 22 22 20 21 22 23 24 25 24 24 27 30 32 36 39 40 39 35 36
26 25 24 22 21 24 25 24 22 24 26 26 26 19 17 18 16 14 17 21 22 22 22 23 20 20 21 21 24 25 25 26 28 29 31 34 36 39 40 39 35 35 35 37
23 27 25 21 22 24 27 28 27 28 26 28 30 26 25 22 20 18 19 21 23 25 23 23 24 25 26 27 27 29 32 32 34 32 36 39 39 40 38 38 35 31 34 42
26 29 27 25 24 24 25 24 27 27 28 30 28 23 23 21 23 24 22 21 22 23 22 23 24 25 27 30 33 37 39 41 41 41 42 39 38 38 40 34 29 33 41 52
30 31 28 24 18 21 24 25 25 26 30 27 27 16 19 19 19 19 21 20 20 21 23 25 27 30 31 32 36 38 39 40 41 38 40 40 37 37 35 32 32 41 47 50
37 36 28 23 22 24 22 23 23 27 24 28 19 20 16 17 18 19 20 20 22 23 25 28 29 32 33 32 34 39 37 37 37 39 39 38 36 38 38 38 39 40 51 52
38 36 30 28 24 23 24 22 24 24 25 23 21 20 18 19 20 19 19 20 24 27 27 27 29 30 32 32 32 32 30 33 35 36 36 36 37 36 39 42 43 41 48 52
37 36 33 30 25 26 25 19 21 23 23 23 23 19 19 20 20 20 20 21 22 25 27 28 28 28 30 32 33 33 32 32 33 34 35 36 38 39 40 42 45 48 52 54
39 34 33 32 30 36 16 17 20 21 19 20 20 20 24 22 22 22 23 23 24 23 23 25 25 24 25 27 30 32 33 33 33 34 35 36 38 40 42 45 49 52 55 58
39 36 35 37 32 30 19 17 18 21 19 20 23 25 24 22 23 24 25 25 23 23 22 23 23 22 22 23 26 29 32 32 33 34 36 39 41 43 46 49 52 56 58 60
41 38 37 36 36 34 16 16 19 23 15 20 28 24 23 21 21 22 24 24 24 24 23 23 23 24 25 26 27 28 29 32 34 37 39 42 44 47 50 53 56 58 60 61
48 44 42 38 38 33 22 19 22 27 15 29 27 27 25 24 23 22 22 24 24 24 24 24 24 23 24 26 28 30 33 35 38 41 43 46 48 51 54 56 58 59 60 60
40 35 38 42 40 37 21 24 25 23 27 28 28 27 26 25 23 24 22 22 21 22 22 23 24 26 27 30 32 34 37 40 42 44 47 49 52 54 56 58 60 60 60 61
50 40 33 33 37 35 31 27 24 25 27 28 29 29 28 26 24 24 22 22 24 24 25 27 28 30 33 34 36 39 41 44 47 50 52 53 55 57 59 60 60 61 61 60
46 45 41 39 35 34 39 29 26 26 26 29 31 34 32 31 29 28 27 27 28 30 31 32 34 36 38 40 42 45 47 49 50 51 53 56 59 60 60 60 61 62 61 63
40 46 45 41 36 30 33 32 32 33 34 35 38 36 35 37 34 33 32 32 32 35 37 38 40 42 44 45 48 49 50 52 54 55 57 58 59 60 61 62 62 61 64 68
38 35 37 41 39 41 41 37 37 36 36 33 39 39 36 38 36 35 35 36 38 40 41 42 42 44 46 49 51 52 53 56 58 58 58 58 59 62 63 62 61 65 69 73

GFSCGP_500_spd_075.txt.gz
Wind_Speed
13 12 8 10 11 7 15 14 13 10 12 17 9 5 12 19 12 8 12 12 14 14 12 15 22 21 19 15 13 14 17 11 11 10 10 9 9 10 11 12 14 17 18 15
14 11 10 11 11 7 8 9 9 9 16 8 6 5 10 14 7 6 7 8 10 11 13 14 13 13 11 11 8 5 6 6 3 3 6 10 12 14 14 16 17 17 17 19
14 12 11 10 11 7 4 6 9 6 11 2 4 2 9 15 13 7 5 7 6 6 6 6 7 4 3 2 2 3 4 5 7 8 10 12 15 16 18 17 18 19 21 21
16 14 14 12 12 9 6 3 2 3 3 12 5 13 5 13 16 11 7 7 6 6 4 4 5 4 3 3 4 7 8 9 9 12 15 16 18 18 18 18 19 22 24 27
15 15 16 16 13 10 10 7 3 3 4 4 8 4 15 8 14 13 9 9 10 11 9 7 7 8 7 8 10 10 11 12 15 16 17 18 20 22 20 20 21 22 26 35
22 18 17 17 16 12 12 10 6 5 6 8 5 6 9 9 7 11 11 14 13 14 15 13 13 12 11 13 13 14 14 15 17 19 20 22 23 24 25 21 23 27 27 30
23 19 17 17 17 15 12 10 5 10 10 8 9 12 12 7 18 20 20 18 22 19 15 14 15 13 14 16 15 16 17 18 19 21 23 24 26 26 27 27 26 21 27 33
24 24 20 14 17 17 17 14 10 9 13 15 15 11 9 19 21 17 18 23 23 23 18 16 17 15 15 16 16 17 19 20 18 19 20 20 31 28 28 20 28 30 31 34
28 23 20 22 21 21 16 21 16 22 22 19 15 13 15 18 16 18 21 26 25 24 20 19 18 18 16 17 17 17 19 19 19 21 22 21 21 21 24 26 31 34 38 41
32 25 27 21 22 23 25 20 21 22 19 19 12 15 14 14 18 20 17 22 23 23 24 21 20 20 21 19 20 20 20 21 23 25 25 23 26 29 32 34 37 42 46 47
34 32 28 30 24 21 21 24 26 17 19 15 15 13 19 17 17 16 18 16 19 22 23 26 24 23 23 23 22 22 25 27 28 30 31 30 32 34 34 36 42 46 47 48
34 32 32 26 24 23 18 22 22 24 22 24 24 24 24 27 23 24 23 22 22 24 24 23 24 24 24 25 27 27 29 32 34 36 36 35 35 37 41 43 42 45 46 45
35 40 35 26 29 25 24 23 22 23 26 27 27 24 15 23 18 21 20 24 23 24 25 23 22 23 25 26 29 31 32 36 39 42 39 43 42 42 42 42 43 45 42 38
37 37 35 31 22 21 22 24 26 26 29 26 27 23 16 20 24 14 22 20 20 23 23 23 23 24 26 29 31 33 35 39 42 42 43 45 42 41 40 44 43 40 41 42
39 38 35 31 29 23 21 23 25 26 25 28 19 22 16 19 18 24 23 21 21 23 24 24 25 27 27 29 31 33 33 36 38 37 39 39 40 38 43 45 41 41 40 42
41 38 36 36 35 29 30 25 25 23 22 23 23 22 18 25 26 24 21 23 24 25 26 28 27 29 28 31 32 33 33 35 36 34 35 37 38 40 41 41 42 42 44 47
40 41 38 40 33 31 38 23 28 22 23 23 23 22 19 24 25 25 22 24 24 27 28 29 29 31 30 31 32 34 35 34 34 33 35 36 37 39 38 41 43 45 47 49
47 42 38 38 38 42 33 25 22 23 23 22 22 23 24 25 25 26 24 26 26 26 27 28 29 30 30 30 29 31 33 33 31 34 34 35 36 39 41 43 46 48 50 53
44 41 39 40 39 35 33 28 22 23 24 23 25 25 27 29 23 25 26 28 28 28 27 29 30 31 30 30 29 29 30 31 32 34 34 37 39 41 44 46 49 51 55 57
46 47 38 37 39 41 32 25 22 23 21 20 26 28 31 30 28 29 26 29 28 27 28 29 32 32 31 30 31 30 30 30 32 34 37 39 42 45 47 50 52 55 57 60
47 44 46 41 40 37 29 26 25 32 13 27 26 30 32 32 29 28 29 28 28 28 28 29 30 32 32 32 30 29 31 33 35 38 40 43 45 47 50 54 57 59 60 61
42 40 42 37 40 38 30 23 27 23 29 31 30 31 30 33 32 32 32 30 30 29 30 29 29 29 30 30 31 33 34 36 39 41 44 46 49 52 54 56 58 59 62 64
43 37 40 41 40 37 37 32 31 29 27 30 32 35 33 33 34 34 34 33 32 31 32 32 31 32 32 33 35 37 39 41 44 46 50 52 54 54 56 58 60 61 62 62
48 43 41 39 36 35 30 26 31 33 31 33 34 35 32 34 34 35 37 36 35 34 35 36 36 36 37 38 41 43 45 46 48 51 53 55 56 57 59 59 60 62 63 64
44 44 45 45 41 40 40 32 34 36 42 42 37 35 37 38 36 37 37 39 40 40 40 41 42 42 44 45 45 47 47 46 48 51 55 56 59 57 58 60 62 63 64 67
37 40 44 39 35 39 40 42 35 35 36 40 40 41 40 39 38 39 39 41 43 43 42 42 43 43 45 46 48 49 52 55 56 57 58 60 60 57 61 62 63 64 67 67

GFSCGP_500_spd_078.txt.gz
Wind_Speed
21 16 15 15 4 7 14 12 13 12 19 22 17 4 21 18 14 21 16 13 17 21 12 15 24 21 16 18 22 11 10 8 4 5 10 17 16 14 8 6 6 6 9 10
26 14 14 15 6 15 14 15 8 11 14 13 9 3 11 16 12 17 19 8 12 14 20 22 14 9 13 13 8 13 9 10 7 7 7 7 5 4 4 7 9 11 13 15
29 18 15 15 11 11 14 12 6 12 16 14 7 6 5 24 12 17 19 11 7 10 11 13 16 14 13 8 6 8 7 6 4 5 6 4 4 6 9 12 12 13 15 17
32 21 17 17 13 12 14 7 7 8 10 9 11 4 9 18 14 20 13 14 10 10 12 10 9 6 6 5 5 7 6 6 6 6 6 7 9 10 13 15 17 16 17 19
27 24 19 19 15 15 11 15 9 8 6 7 8 3 10 15 13 17 22 15 9 10 12 9 7 9 10 9 9 9 10 10 11 11 10 11 12 14 16 18 19 18 19 21
27 26 23 21 18 16 14 14 12 7 10 9 6 9 16 11 6 13 21 17 14 12 12 12 8 8 7 7 10 11 11 11 12 14 14 15 15 17 20 22 21 19 21 27
27 30 26 23 22 18 16 16 15 13 13 4 12 13 11 20 11 15 18 24 24 22 15 11 11 12 7 7 7 7 9 12 11 14 16 16 17 16 19 22 22 25 26 27
33 34 25 22 20 18 18 17 18 11 6 14 20 10 5 7 14 15 15 17 23 28 25 20 16 11 11 8 9 10 11 13 13 11 14 14 17 19 19 17 23 25 27 31
34 30 25 26 22 24 17 23 15 18 20 17 13 6 5 16 23 23 17 17 17 20 28 25 22 20 15 14 12 13 14 13 14 15 15 18 20 22 19 19 22 26 31 34
31 24 25 23 25 28 26 16 18 23 25 18 18 6 20 21 10 16 14 22 18 16 15 22 24 23 21 19 20 20 19 19 19 20 21 21 24 25 24 25 28 31 33 36
35 27 24 27 33 27 28 29 26 24 17 20 19 13 25 24 17 9 15 24 21 14 13 18 20 25 27 28 22 20 23 24 25 26 26 28 27 31 30 31 35 34 37 42
44 33 34 34 33 30 27 24 24 29 24 18 24 19 16 20 20 24 32 30 32 28 20 18 22 23 24 26 26 22 24 27 29 30 30 30 33 34 34 36 37 37 39 40
43 47 32 33 28 36 33 26 22 21 19 29 29 28 23 21 24 24 20 22 19 28 23 24 18 21 23 26 28 26 24 28 34 37 33 31 40 37 36 38 40 39 39 41
44 47 48 41 36 27 31 26 30 26 26 24 27 24 21 17 22 21 23 21 18 22 26 20 20 19 22 24 25 29 30 31 33 36 37 37 32 37 40 37 35 37 41 41
46 46 46 45 42 24 25 24 29 32 31 30 23 22 19 14 20 29 29 19 20 18 24 19 22 25 23 26 28 29 32 31 33 30 32 35 35 35 36 37 39 38 41 42
50 52 41 43 40 38 34 26 24 27 30 29 27 24 22 19 20 25 27 28 30 32 30 24 23 26 33 24 29 32 32 30 31 34 33 34 35 38 40 39 39 40 40 43
46 45 43 47 39 40 45 33 32 31 29 25 25 23 24 23 23 30 37 37 27 28 25 24 29 31 36 30 31 33 34 34 33 33 34 34 35 39 39 39 37 40 43 45
52 44 44 37 42 51 42 42 40 40 28 26 25 25 25 20 25 31 38 22 30 26 26 28 30 33 33 33 33 35 36 36 35 33 32 33 34 36 38 39 42 44 46 48
40 50 47 49 45 45 44 35 35 29 27 27 23 25 24 25 32 35 28 22 31 31 29 31 33 34 33 34 35 36 36 35 35 35 34 34 36 38 40 42 44 47 50 53
40 44 48 37 49 45 41 36 31 29 36 21 26 30 30 29 34 28 27 27 28 30 30 32 33 33 33 35 35 36 35 35 35 36 36 36 38 40 43 45 47 50 53 56
50 45 48 54 46 43 39 30 29 38 30 19 30 25 29 30 30 27 29 29 30 31 32 33 34 34 34 34 35 35 35 34 34 36 38 39 41 44 46 48 51 54 57 59
39 39 43 43 47 44 29 31 36 27 24 33 33 31 32 31 30 32 30 30 30 32 35 34 35 36 36 35 35 35 34 35 37 39 42 44 45 48 51 54 57 58 60 61
43 31 34 41 35 37 37 34 30 34 39 36 37 33 35 35 34 34 34 32 33 35 35 36 37 38 39 39 38 39 39 41 43 45 47 49 51 52 54 56 57 60 62 64
42 35 30 34 37 31 29 32 32 33 33 39 42 34 38 37 34 35 35 35 35 36 38 38 39 41 42 43 44 43 44 46 48 49 50 52 54 57 60 59 61 65 68 68
39 39 41 39 33 32 28 37 22 29 32 30 33 41 42 42 40 38 39 38 38 39 41 41 42 41 43 45 45 44 45 47 47 49 51 53 58 60 61 62 65 66 67 66
35 37 45 43 39 39 38 38 35 35 34 35 38 37 38 41 40 44 44 44 41 40 40 42 42 46 48 46 44 45 46 47 51 54 56 57 56 59 63 65 67 64 64 62

GFSCGP_500_spd_081.txt.gz
Wind_Speed
25 22 12 15 16 20 14 5 15 11 14 17 18 15 14 8 8 18 24 18 16 20 25 26 12 9 9 11 13 14 14 10 4 3 4 2 5 16 17 14 17 14 13 13
28 18 14 15 16 21 16 11 12 13 9 16 15 10 17 13 15 12 22 14 14 15 19 22 23 19 13 3 5 10 5 5 14 13 10 13 14 12 14 11 7 6 6 7
29 17 21 19 18 20 15 10 9 12 19 20 14 6 13 7 10 9 17 10 10 13 14 14 16 18 18 16 15 16 14 12 9 7 8 8 6 5 5 4 5 6 7 10
31 20 26 24 17 19 17 14 10 14 12 14 8 4 11 10 8 3 5 5 11 12 12 10 11 11 11 9 10 11 10 9 7 6 5 5 2 1 2 5 7 7 11 15
23 22 24 25 17 20 17 18 16 13 10 11 10 8 10 12 11 11 5 7 9 10 13 5 7 7 7 7 7 5 5 7 6 6 6 4 4 5 7 8 11 13 13 15
34 24 29 24 22 24 22 20 15 16 13 13 10 14 12 12 11 10 12 12 12 8 10 9 4 7 7 4 1 1 2 3 4 3 3 3 4 4 4 6 11 13 15 18
31 25 29 30 28 28 24 23 18 21 19 12 19 12 8 12 10 10 11 12 12 9 3 6 9 8 8 5 6 7 7 7 8 9 8 7 7 5 9 13 14 12 14 16
35 29 30 28 26 29 23 24 21 21 20 19 20 13 13 13 7 13 17 18 17 14 13 5 4 8 10 8 8 8 8 9 9 11 11 10 11 12 11 12 15 14 15 19
35 33 26 28 28 30 23 28 13 23 24 22 12 1 16 13 9 19 22 20 23 19 18 15 8 8 11 11 11 10 10 11 10 12 13 14 15 18 17 16 17 17 19 23
34 36 35 34 28 31 29 23 24 27 26 24 12 12 17 20 23 24 25 26 18 17 24 21 15 9 12 14 16 16 17 17 17 15 15 17 20 21 22 22 19 22 24 28
33 41 37 40 38 35 28 32 31 22 29 29 24 18 21 20 19 24 20 17 18 24 19 25 25 21 18 14 16 17 17 21 20 21 19 19 22 28 27 27 27 26 28 29
39 38 44 42 40 35 29 29 31 31 24 28 27 20 27 19 19 16 18 23 25 31 23 18 22 29 28 19 18 14 18 20 23 25 24 21 23 30 34 33 29 29 30 33
37 35 50 42 46 39 37 32 30 34 32 34 29 19 22 17 15 16 24 20 20 26 22 15 18 22 26 21 18 17 18 20 23 27 27 26 27 30 33 32 33 32 35 33
42 38 44 51 45 42 40 38 34 33 35 26 25 27 28 25 23 25 23 22 23 28 26 24 13 15 20 23 23 21 20 22 25 27 28 30 30 34 39 32 34 34 34 37
38 38 42 51 44 42 43 34 28 34 34 33 20 25 23 25 24 31 31 27 28 25 23 27 17 13 15 19 23 24 24 25 27 29 30 28 29 30 33 34 35 35 34 37
42 39 39 55 46 50 36 37 27 26 29 35 35 29 26 22 22 28 23 31 28 29 27 25 25 24 20 16 20 22 27 30 29 29 30 33 34 34 33 33 37 36 38 40
44 41 41 55 58 46 49 39 35 29 27 26 32 33 33 26 25 32 34 34 30 33 32 24 27 28 28 27 25 27 29 31 32 32 33 33 32 33 34 36 38 37 38 40
36 38 43 51 55 61 56 46 38 34 32 28 30 31 29 28 28 31 32 34 36 33 24 28 27 26 30 33 33 33 33 32 33 33 34 35 33 34 35 38 40 41 41 43
40 54 49 51 48 55 57 52 47 38 38 36 36 27 28 30 29 31 31 32 32 25 28 31 31 31 32 32 33 33 34 34 35 36 35 36 37 37 38 38 40 42 45 47
37 45 59 61 60 55 46 44 48 49 45 39 31 32 34 33 36 33 32 27 25 27 28 30 32 33 31 32 33 35 35 36 36 36 36 37 38 38 39 41 44 46 48 51
46 46 45 44 46 50 37 41 47 49 44 29 29 34 37 37 35 33 30 29 26 26 28 30 32 32 32 34 35 35 36 36 37 38 38 37 39 41 44 46 48 50 52 55
33 44 40 41 40 35 32 42 42 43 41 32 34 35 39 39 33 29 31 30 28 28 29 31 32 33 34 34 35 35 35 36 38 40 40 41 42 44 47 50 52 54 56 58
32 39 44 44 44 40 42 41 40 33 39 38 43 47 45 39 36 37 33 33 33 33 34 35 33 32 35 37 37 37 37 38 40 43 44 44 45 48 52 53 55 56 58 61
30 31 36 48 39 41 37 42 39 37 28 33 41 43 46 43 42 42 39 37 37 36 37 36 33 35 38 39 40 40 40 41 43 42 43 45 48 49 51 53 56 58 59 59
33 34 31 37 37 38 41 33 32 33 36 33 32 32 35 37 41 42 42 42 42 40 39 40 40 42 41 39 39 39 40 42 44 44 47 49 50 52 55 58 60 62 64 66
34 34 31 37 35 33 30 39 39 35 23 27 33 32 33 32 34 37 39 39 39 39 37 39 41 43 43 41 39 40 41 42 46 48 49 52 54 56 60 63 62 60 61 60

GFSCGP_500_spd_084.txt.gz
Wind_Speed
25 28 20 23 21 19 14 15 16 15 19 6 12 14 7 3 1 9 14 14 14 18 20 17 7 7 9 13 9 1 11 10 7 8 8 10 11 16 17 18 21 16 15 17
31 22 17 30 26 19 16 17 18 15 16 12 12 14 10 5 4 5 8 13 10 15 13 16 16 16 8 8 6 6 9 11 7 4 3 7 11 13 13 17 19 17 17 17
31 17 25 29 30 20 17 17 16 15 17 14 12 11 13 7 1 2 4 8 7 12 12 9 11 12 16 19 18 12 12 12 9 9 12 11 13 14 16 14 10 10 13 13
35 24 24 29 32 26 18 18 15 18 16 14 16 11 13 8 4 4 4 7 4 7 11 7 5 6 10 14 16 15 13 14 13 12 10 9 9 9 8 7 7 7 8 8
32 24 27 30 24 31 21 18 19 19 21 15 15 17 14 12 6 5 2 3 3 2 4 7 5 8 5 9 10 9 9 10 10 12 10 8 7 5 5 5 5 7 9 12
40 32 35 31 28 30 27 19 23 21 21 20 17 22 14 15 8 6 7 2 2 5 5 5 5 5 9 4 2 4 5 6 7 6 7 8 8 8 6 6 6 6 12 15
42 40 32 35 35 32 30 26 25 26 24 21 20 23 10 17 15 10 8 3 4 5 5 6 10 5 4 5 3 3 3 3 5 4 4 5 5 7 10 12 14 12 11 15
43 41 36 32 31 34 32 28 26 27 24 25 25 23 21 21 20 14 13 9 9 4 8 10 9 12 8 5 5 4 5 4 5 7 8 8 9 10 12 14 15 14 13 14
44 46 34 33 30 35 33 33 20 25 29 30 27 20 21 26 19 16 20 9 10 7 10 10 8 10 12 12 10 9 7 7 8 9 10 12 13 15 16 19 20 19 17 20
41 41 32 34 34 36 39 29 28 30 34 34 28 25 19 21 17 15 19 20 16 16 15 9 10 10 9 12 14 15 16 16 14 13 14 16 17 19 20 21 23 25 24 27
36 39 35 36 43 42 41 38 36 30 36 33 29 29 21 20 20 16 21 22 21 16 17 24 22 16 14 14 15 17 18 18 17 15 16 18 20 23 25 24 25 29 33 30
38 37 40 41 42 42 42 38 33 34 36 33 29 28 30 27 24 24 26 24 20 22 25 21 18 19 18 17 17 17 20 20 20 20 18 19 23 24 30 32 32 35 37 37
40 44 43 40 43 49 49 47 41 31 31 40 32 24 25 25 20 21 18 22 25 29 28 22 15 14 18 17 14 11 15 17 21 22 22 22 24 27 32 35 33 37 46 29
41 46 46 41 41 43 49 51 46 34 37 40 39 31 24 33 24 28 23 29 30 27 29 23 17 11 12 17 13 14 15 18 21 21 22 24 26 28 28 31 29 40 30 34
45 50 46 41 37 35 50 52 44 36 35 37 31 33 24 33 30 28 27 27 32 32 35 28 20 18 19 16 18 18 17 19 22 24 25 23 24 28 30 30 27 33 33 33
35 42 45 46 39 38 54 49 49 45 38 36 34 33 28 25 32 35 33 36 37 37 32 22 22 24 20 19 20 18 20 22 25 26 25 25 27 28 29 32 34 34 34 35
43 39 36 43 35 43 50 51 53 49 46 37 36 34 27 37 28 25 31 34 34 33 33 22 18 22 25 22 22 21 24 27 28 28 28 28 30 30 32 33 35 37 39 39
37 45 44 39 36 41 49 50 51 48 42 33 30 29 29 26 32 35 37 36 34 34 32 25 28 29 29 28 27 28 29 30 30 29 30 31 32 33 34 36 37 39 41 42
20 31 45 40 39 41 42 52 50 44 43 42 35 36 28 26 27 30 31 34 32 34 34 32 29 29 30 31 32 32 34 32 30 31 31 32 33 34 36 37 38 39 40 41
25 30 47 42 31 42 39 45 50 56 44 38 39 33 33 33 33 29 30 32 31 29 29 28 30 31 30 31 34 35 34 34 34 35 36 35 35 36 37 39 41 42 43 44
34 39 40 38 42 42 35 36 50 56 54 41 43 37 39 38 36 37 38 36 31 32 30 28 27 27 29 31 34 36 36 36 36 37 37 36 37 38 40 42 44 45 46 49
20 33 40 36 39 45 38 38 43 54 52 51 51 43 43 42 41 38 38 38 35 34 30 30 30 27 29 31 33 35 36 36 38 40 40 40 40 41 43 45 47 48 51 54
20 33 31 40 43 42 41 43 45 46 45 54 47 49 50 45 44 43 43 41 40 39 37 35 32 32 32 33 33 33 34 37 40 41 43 42 42 44 47 48 50 52 54 55
24 16 25 38 33 38 39 40 28 31 36 41 40 49 51 51 49 46 45 44 42 39 39 38 38 37 38 38 37 37 38 39 41 42 44 45 47 49 49 52 54 54 55 58
31 24 18 23 25 32 40 36 37 32 32 34 36 32 39 47 48 48 48 47 43 40 36 35 35 35 37 36 39 42 41 41 41 42 44 48 49 51 50 52 53 55 59 62
29 25 21 20 23 25 21 39 36 34 35 28 34 38 37 34 32 37 34 34 33 34 36 36 38 40 42 44 45 42 44 44 42 44 46 51 51 51 55 54 57 61 64 68

GFSCGP_500_spd_087.txt.gz
Wind_Speed
35 36 20 14 19 24 23 23 27 22 18 22 17 11 5 8 17 12 5 5 8 13 18 17 14 5 9 12 14 10 11 16 13 15 15 18 23 25 23 26 24 29 27 27
39 33 14 24 28 22 24 24 25 25 21 26 19 10 6 9 16 13 2 4 7 7 10 13 15 9 6 6 14 10 9 17 12 12 14 16 21 33 31 31 28 24 25 21
37 30 28 29 29 26 22 23 25 32 28 25 15 9 9 6 9 7 3 1 4 8 7 7 8 12 10 9 9 11 12 13 15 16 17 19 21 21 18 20 18 18 20 20
41 34 32 33 30 27 23 23 27 33 30 24 16 10 13 10 8 7 6 4 3 3 2 5 5 5 6 10 9 9 10 11 12 15 15 13 15 16 17 16 14 14 16 18
38 32 32 33 25 31 24 31 28 31 35 24 17 17 14 9 10 11 9 7 5 2 1 2 3 4 2 3 7 8 9 7 10 12 12 11 12 11 10 11 12 13 12 11
44 41 38 36 29 35 29 31 31 35 37 29 18 23 11 16 16 13 13 7 4 4 4 3 1 2 1 4 4 8 8 8 8 9 10 9 11 12 14 14 13 11 11 15
44 46 43 38 39 37 37 31 34 37 38 30 20 26 12 22 18 15 20 14 8 5 3 1 4 7 7 4 4 6 5 5 4 3 5 4 6 7 7 10 11 11 11 14
45 46 42 41 40 35 32 34 37 39 37 29 25 29 16 24 24 15 18 21 11 6 5 4 3 4 8 8 7 6 6 8 6 5 4 4 6 8 9 12 15 15 16 17
44 47 41 39 36 36 35 41 35 38 41 39 31 28 23 25 25 19 21 23 7 6 6 8 6 7 6 9 9 11 11 10 8 7 6 7 8 11 11 15 17 19 18 20
48 48 46 40 39 39 40 35 40 39 43 41 34 30 25 23 24 19 25 23 18 14 12 13 11 10 12 12 13 13 15 14 14 11 12 13 14 14 16 18 20 22 24 26
54 55 49 39 45 44 43 43 45 41 43 42 35 31 24 26 24 21 24 25 22 16 14 15 19 21 21 19 15 14 17 20 19 17 14 13 15 16 19 19 22 24 29 33
55 54 56 49 39 46 43 42 42 45 46 43 39 29 21 28 31 26 25 23 19 19 16 16 18 17 13 14 19 17 17 19 21 21 18 14 17 20 23 24 26 29 33 37
52 56 53 49 46 50 52 51 48 48 46 47 40 31 22 29 30 31 29 29 22 19 19 19 15 13 13 11 11 15 18 17 18 21 21 18 21 23 25 28 28 32 35 39
46 54 56 57 48 51 52 49 50 50 49 47 44 37 29 27 30 31 30 22 24 22 23 24 17 11 9 10 10 13 18 18 17 17 19 20 21 24 27 30 31 35 38 35
44 44 53 55 51 48 49 48 50 50 49 48 43 39 31 28 29 27 31 25 32 30 26 27 22 15 17 15 15 18 19 19 20 20 20 22 24 26 27 29 31 33 33 34
45 51 51 54 53 50 48 54 53 51 48 46 50 44 33 27 33 34 30 31 33 33 32 31 32 22 19 20 20 24 24 24 23 23 22 24 27 28 29 30 32 34 35 33
44 39 50 55 50 50 51 46 53 50 48 48 50 45 39 32 32 33 31 30 37 37 32 33 31 23 21 22 24 25 28 26 27 25 26 27 28 29 30 32 33 35 36 36
25 10 31 41 47 49 49 43 39 45 54 54 49 44 41 40 34 37 35 33 30 29 30 32 34 25 22 25 27 28 28 28 29 30 32 31 30 30 31 34 36 38 38 40
44 39 19 29 38 38 50 47 40 43 47 47 46 50 41 41 37 34 35 39 29 27 27 28 32 28 24 27 28 27 29 32 33 35 37 36 35 35 36 37 38 40 41 42
56 50 27 19 33 40 38 35 33 42 42 45 44 39 42 35 41 31 29 27 24 25 27 27 27 26 27 31 31 31 30 31 34 36 37 38 39 39 40 40 41 42 44 45
59 52 41 20 25 35 41 37 36 38 40 40 46 51 44 35 37 33 36 32 28 29 30 28 28 28 30 30 30 29 29 31 34 37 39 41 42 42 42 44 46 48 48 48
44 47 53 43 36 32 36 37 37 37 29 34 48 41 39 40 39 40 36 34 32 33 33 33 33 31 31 31 32 32 32 33 34 37 39 41 41 42 45 48 50 51 52 54
48 47 37 16 23 33 38 36 29 36 25 37 40 44 43 41 43 39 38 36 36 37 39 44 41 39 39 37 34 35 36 38 39 41 42 44 46 48 49 50 51 52 54 56
53 50 48 32 19 23 27 31 34 26 32 29 40 44 30 43 35 46 43 42 44 42 41 41 41 41 40 40 43 44 43 43 42 43 46 50 51 51 51 51 51 53 56 58
43 49 49 25 17 18 20 27 35 36 29 34 32 45 45 42 51 54 45 44 47 48 45 44 42 39 38 37 38 39 40 42 44 48 52 51 53 53 51 52 53 56 60 59
39 52 50 28 10 21 17 17 17 22 33 37 34 29 32 32 37 39 45 48 46 43 39 37 37 36 39 41 41 42 44 47 48 49 50 51 52 52 54 57 59 60 62 65

GFSCGP_500_spd_090.txt.gz
Wind_Speed
38 39 37 20 24 26 31 23 15 18 24 29 30 20 23 15 16 12 14 16 18 10 11 15 20 7 4 11 14 11 11 15 15 20 22 23 25 19 24 24 25 27 27 31
41 40 32 27 28 32 34 27 14 18 21 32 30 23 21 21 16 11 13 10 11 8 8 10 16 14 2 8 12 12 8 14 13 16 21 27 30 33 28 27 27 24 27 31
42 38 33 33 31 33 34 27 19 22 27 31 32 23 17 22 17 11 10 11 10 9 7 8 9 13 7 4 9 12 15 16 18 14 18 21 26 30 34 30 29 29 29 29
43 41 38 36 34 31 35 21 25 27 32 32 30 22 16 20 16 11 11 13 12 9 7 5 5 6 8 7 3 5 6 7 8 10 14 20 23 24 31 35 32 31 27 24
43 37 36 37 29 33 30 28 31 33 35 31 27 28 10 18 16 17 13 11 13 12 7 3 2 2 1 3 4 4 7 7 7 6 7 7 9 14 17 19 17 13 13 16
43 44 39 40 31 37 32 33 35 37 34 30 24 31 13 19 17 17 11 12 10 11 10 6 4 2 0 2 2 2 1 5 8 9 10 11 13 15 16 17 18 17 16 18
42 43 41 40 36 38 38 37 39 37 34 30 25 33 19 18 21 17 17 14 13 11 10 6 5 5 4 3 4 4 4 4 4 6 7 9 11 12 13 12 11 12 15 18
46 45 44 44 39 37 39 40 43 39 32 32 32 34 17 20 23 17 17 16 18 13 13 12 8 5 5 6 6 6 6 5 7 7 8 8 9 10 11 11 13 16 15 15
44 46 48 44 42 39 42 44 39 37 36 38 36 34 25 23 25 17 16 17 19 17 16 15 12 9 5 7 10 11 8 8 9 6 6 8 9 10 11 10 11 13 15 16
45 46 47 46 47 44 47 42 41 45 44 40 40 35 29 21 27 20 19 18 20 23 24 17 14 11 8 9 13 13 13 13 14 12 14 15 15 15 16 14 16 17 18 19
48 49 45 46 47 46 47 48 49 49 46 44 43 40 26 20 28 23 16 21 25 25 28 23 14 16 19 18 19 18 17 17 18 21 22 23 22 20 17 16 19 20 22 22
50 52 52 47 40 44 47 48 46 49 48 45 40 41 27 19 24 26 23 19 20 22 23 23 21 17 18 20 17 22 22 20 21 25 24 24 24 22 18 20 22 22 22 24
49 52 51 50 44 43 48 52 52 52 52 50 45 42 31 21 23 24 24 23 24 25 27 27 19 17 16 17 14 16 24 25 23 23 23 21 20 16 19 20 22 24 26 28
54 54 53 53 49 44 50 50 51 55 55 51 47 43 35 27 29 27 25 27 28 26 25 22 20 18 14 11 13 15 18 23 22 20 20 19 18 18 19 23 25 26 27 29
53 53 54 55 55 49 50 52 51 54 57 56 49 47 39 30 26 26 25 27 21 24 24 23 26 22 14 15 17 19 17 19 19 19 20 22 22 22 24 26 28 29 30 31
53 46 41 44 44 53 50 53 53 53 53 51 50 47 40 31 29 31 31 28 28 28 28 26 26 27 28 18 18 21 21 22 26 24 23 24 25 25 27 28 30 32 34 35
54 55 46 46 45 36 48 50 53 55 56 52 51 49 46 33 34 33 37 35 33 26 23 26 26 30 27 18 17 21 26 28 29 30 29 29 29 30 30 33 35 36 36 38
48 50 49 50 43 41 44 39 42 51 53 54 51 49 45 36 36 37 35 33 30 27 24 21 24 27 26 19 18 22 24 27 30 33 33 33 34 35 36 36 36 37 39 40
43 57 61 50 27 19 34 38 37 44 48 49 53 49 42 40 40 36 34 36 29 28 26 26 28 27 23 21 20 22 24 23 25 28 31 33 34 37 38 38 38 39 40 42
30 47 59 60 27 21 7 27 37 39 48 41 43 43 45 49 40 36 38 38 26 25 26 25 25 22 23 23 22 24 25 26 28 29 31 33 35 37 38 39 40 42 43 46
13 24 47 50 49 18 14 15 30 34 37 38 42 38 40 33 33 37 40 31 32 29 27 26 25 25 22 23 24 25 27 29 31 32 33 35 36 38 39 41 44 46 47 49
12 20 20 23 37 38 14 15 21 33 30 33 36 36 31 35 39 39 33 33 34 33 33 30 29 29 27 26 30 34 35 37 38 37 37 39 40 42 44 46 48 50 52 54
13 14 29 30 18 18 30 30 24 18 30 28 32 28 31 35 32 33 41 36 40 37 35 34 30 28 32 35 33 34 38 42 43 43 44 45 46 47 47 47 49 53 56 58
22 18 20 37 32 15 14 20 26 35 33 28 29 32 31 27 30 30 36 35 29 34 38 38 32 36 36 35 39 42 44 45 45 43 43 43 43 45 48 52 54 54 55 56
24 25 22 32 35 41 19 23 24 33 30 28 27 27 26 30 34 28 31 29 29 31 31 34 40 40 38 40 41 40 40 39 40 43 43 45 48 50 51 51 53 54 55 56
24 25 26 26 36 42 21 22 25 29 33 40 24 25 26 28 32 28 28 31 32 33 38 34 34 45 39 38 39 38 38 42 45 46 46 48 49 50 51 52 52 52 53 54

GFSCGP_500_spd_093.txt.gz
Wind_Speed
44 45 42 34 31 31 33 32 31 20 25 25 26 11 15 20 17 20 23 20 24 15 12 13 18 16 9 13 15 11 8 8 13 22 18 20 28 30 27 32 31 32 30 25
45 44 42 35 34 31 34 34 29 22 24 29 29 17 17 22 20 19 24 21 23 13 11 10 15 17 5 7 10 10 9 14 11 17 27 22 25 28 22 24 28 29 28 28
47 45 43 40 36 35 36 36 30 26 29 33 32 21 16 21 19 18 23 19 18 12 10 8 11 13 14 1 5 11 10 11 20 16 22 25 23 30 25 27 29 34 33 33
52 47 45 41 39 35 38 31 35 30 32 32 33 22 9 19 19 18 22 16 17 12 12 10 6 8 10 11 3 2 3 7 12 16 20 23 27 25 32 30 33 35 32 31
49 50 47 42 35 34 35 34 38 34 35 34 31 28 6 13 17 19 21 16 13 12 11 12 8 4 4 6 6 4 2 1 4 9 14 20 23 25 26 30 32 31 30 31
35 37 42 39 37 36 36 36 38 38 39 36 27 28 8 10 17 19 22 21 15 14 11 10 10 8 5 2 2 1 2 3 4 4 5 8 10 13 15 17 23 26 21 16
37 36 35 36 38 38 36 37 40 42 42 34 30 28 17 11 16 14 19 21 17 15 9 8 8 8 9 6 3 5 5 5 3 3 3 4 5 7 7 9 10 12 13 14
38 39 38 36 38 35 34 37 41 43 40 35 38 34 23 14 12 18 21 24 20 15 12 10 11 11 9 10 8 6 6 6 6 7 8 7 8 9 9 10 11 13 16 14
37 38 42 40 40 40 38 41 37 42 42 42 41 38 34 15 14 16 20 22 21 16 19 15 15 12 14 8 8 10 8 9 9 10 10 10 12 12 11 11 12 13 15 15
40 40 37 38 40 42 45 42 42 46 45 43 41 40 38 20 16 19 19 22 22 22 19 16 11 13 14 14 9 8 12 13 12 13 12 12 11 12 12 14 14 15 15 14
44 46 41 40 37 32 41 45 47 48 45 43 43 44 41 20 21 18 17 23 23 23 21 26 20 20 17 20 20 18 17 19 18 18 18 17 16 18 18 18 18 18 15 17
45 47 47 43 38 34 35 42 46 51 50 49 47 43 40 23 20 18 14 22 17 23 24 26 20 17 16 20 23 24 24 25 23 23 21 20 20 22 27 22 22 20 18 19
47 48 48 45 42 40 39 38 45 48 51 50 50 48 45 34 21 20 17 21 19 19 21 22 20 17 19 19 25 27 21 21 26 25 23 21 21 20 22 25 22 21 20 22
50 49 50 48 43 39 43 43 41 46 51 50 49 48 46 41 25 26 20 20 24 24 24 24 27 19 20 18 22 25 23 19 22 26 25 22 20 20 17 18 21 24 26 27
51 51 52 51 48 47 41 43 43 48 45 51 48 49 47 45 29 29 27 26 26 27 27 28 26 23 25 18 19 21 22 21 18 21 23 25 22 21 20 21 22 25 28 29
51 52 53 53 50 50 49 45 44 46 50 51 48 50 50 48 32 31 32 28 30 28 22 21 22 20 22 20 21 21 23 25 24 21 22 25 26 25 26 26 26 28 30 31
37 41 47 50 49 46 50 42 41 46 49 48 49 46 49 47 40 36 35 34 34 32 30 25 19 19 25 23 19 18 23 25 26 25 26 29 31 31 30 31 33 33 33 35
17 20 27 41 42 43 45 37 33 34 43 46 47 46 47 43 42 37 39 36 34 30 32 30 25 22 21 19 21 19 19 23 25 26 27 29 32 36 36 37 38 38 38 38
21 21 25 33 29 37 39 38 36 39 26 35 46 47 45 40 43 36 36 35 34 32 29 26 28 24 24 23 24 18 18 21 21 21 23 24 27 30 32 35 38 39 41 41
14 19 26 31 36 30 28 37 34 28 30 38 39 44 43 39 42 31 36 35 33 33 36 30 24 28 29 28 24 20 22 21 21 21 22 24 26 28 32 34 36 38 40 42
14 14 14 20 30 30 33 27 19 29 26 34 35 37 39 38 36 34 37 40 34 32 34 26 27 31 32 28 24 22 22 23 25 26 27 27 30 32 35 38 40 42 45 47
9 12 10 9 18 21 31 30 28 16 29 30 36 36 33 34 36 31 30 34 34 38 40 33 32 33 33 31 29 27 28 30 31 34 34 34 35 37 39 42 45 47 48 48
6 8 9 12 10 12 22 27 26 19 7 32 31 35 28 27 31 29 28 31 37 43 40 38 40 40 38 35 31 33 34 36 33 32 36 40 42 43 42 42 43 44 45 48
10 10 8 7 19 22 8 10 25 15 14 15 27 25 24 24 25 30 34 32 37 44 41 43 44 43 40 37 36 34 30 35 36 38 38 38 38 37 42 44 45 47 49 51
16 15 11 10 10 24 29 15 9 14 17 19 22 24 25 28 27 24 30 32 31 43 40 43 34 33 31 39 41 44 37 38 38 37 36 36 39 43 45 47 48 50 50 51
18 19 17 9 13 12 26 24 25 20 18 18 24 25 23 23 21 22 24 21 26 29 31 30 32 29 26 32 44 38 38 36 36 37 40 44 47 49 49 49 48 48 49 50

GFSCGP_500_spd_096.txt.gz
Wind_Speed
49 47 49 50 45 37 41 36 34 30 39 33 29 23 20 20 22 20 21 16 15 19 19 18 17 19 20 15 10 12 14 13 13 5 13 24 36 39 45 37 35 41 42 42
47 50 46 48 41 43 40 39 38 31 37 37 31 28 22 19 20 22 22 17 15 16 15 14 15 15 16 11 9 9 11 12 11 11 17 24 30 37 36 39 43 42 44 41
54 50 43 46 45 44 42 40 35 34 38 37 36 32 25 19 21 20 23 16 13 15 13 11 12 14 13 10 6 8 9 8 12 6 13 23 27 25 40 31 35 41 38 36
53 53 49 42 43 43 43 39 36 38 40 41 42 37 24 13 19 22 25 18 12 12 13 11 9 11 9 9 6 7 10 9 10 13 17 17 19 23 30 20 25 34 28 27
34 44 50 48 37 35 38 36 38 40 44 44 43 39 18 15 19 23 23 15 12 12 14 12 8 9 10 7 8 6 3 4 7 14 15 18 21 25 24 29 26 28 29 30
36 31 34 54 39 36 37 37 39 41 41 47 39 39 22 15 20 22 24 18 12 13 14 10 8 8 11 10 5 2 5 2 1 5 12 15 21 23 25 35 33 22 29 34
34 35 30 30 37 46 46 39 38 42 44 45 43 38 26 17 19 21 23 19 14 14 14 13 9 6 7 8 8 5 5 4 2 2 6 8 9 14 18 20 21 23 26 29
32 32 33 32 30 32 32 36 35 39 36 36 44 44 30 22 21 17 22 23 17 15 17 18 15 9 9 8 8 7 7 8 6 6 5 7 8 9 9 9 8 9 10 11
31 28 32 31 33 34 36 38 32 41 41 43 42 44 37 22 22 19 18 24 20 18 20 19 20 14 13 11 10 8 7 9 8 9 9 9 8 9 11 11 12 13 14 15
39 33 30 30 32 31 39 39 39 41 44 47 45 42 38 27 21 22 18 23 25 20 22 21 20 19 14 13 16 15 8 8 10 11 11 10 9 11 11 13 15 16 17 17
41 42 37 33 29 29 29 40 40 41 43 41 40 29 38 33 20 24 17 22 25 23 22 24 23 22 20 19 17 16 20 18 14 15 16 15 15 13 12 14 17 20 20 21
46 45 42 37 35 32 29 30 37 44 45 42 42 40 39 30 16 19 17 21 25 23 25 27 22 22 21 19 19 21 22 22 21 22 21 20 18 18 18 20 19 24 23 22
47 48 45 40 35 35 38 38 34 37 44 44 44 39 36 38 30 26 20 22 23 21 20 24 22 22 21 18 19 20 21 22 23 21 22 22 19 17 20 21 22 25 28 25
49 49 47 43 32 38 38 39 40 41 45 44 45 45 46 41 26 17 18 21 23 26 23 23 23 21 20 19 18 22 20 15 16 20 22 25 25 24 23 24 21 20 26 28
49 49 50 47 42 42 36 36 40 43 43 46 40 43 43 40 35 30 29 26 26 27 28 27 24 22 20 21 22 24 19 17 18 20 21 24 26 25 26 25 24 23 25 27
47 46 48 47 43 41 43 41 40 41 45 49 46 44 37 37 34 27 29 30 31 32 32 32 27 26 24 23 26 29 24 21 19 22 24 22 24 25 25 25 26 26 27 29
39 39 39 38 39 40 45 41 42 42 45 47 50 46 41 41 37 31 29 29 32 32 30 30 34 31 25 26 31 27 24 23 22 22 24 27 27 25 28 30 31 31 33 35
29 29 29 29 27 36 36 41 38 39 40 45 50 47 45 42 40 40 28 36 35 35 34 32 39 28 26 27 31 29 24 24 24 23 25 26 27 30 31 32 33 35 38 40
21 22 22 19 17 23 30 30 31 32 39 39 44 47 45 44 44 43 34 34 39 40 40 35 37 34 33 30 31 29 25 23 25 25 26 26 26 27 27 28 28 32 35 39
19 20 21 19 18 21 21 29 28 31 37 39 39 40 39 44 47 44 37 34 38 38 45 39 38 34 34 31 33 35 28 25 25 27 26 26 26 25 25 26 28 30 33 36
17 19 14 15 19 23 24 26 29 28 35 35 35 40 41 38 41 42 38 34 37 36 31 35 41 37 35 35 34 36 37 30 29 29 28 29 28 28 30 32 34 37 39 41
16 18 10 13 8 6 16 26 28 28 32 34 30 31 35 38 36 34 33 33 34 35 33 34 34 38 43 40 38 40 35 35 34 32 33 33 34 37 35 35 39 43 45 47
10 14 7 8 8 9 14 17 15 21 27 20 34 37 33 37 31 27 29 28 31 29 31 34 38 37 33 36 40 38 39 41 39 37 37 34 37 35 38 42 44 43 41 42
13 11 8 2 1 9 15 18 18 13 12 17 17 33 30 31 29 25 25 25 30 32 36 37 40 42 40 46 44 43 45 45 41 41 33 34 39 40 40 40 40 41 43 47
14 10 8 6 3 1 5 10 10 6 11 15 14 22 30 26 24 24 26 25 28 30 39 32 39 46 49 51 46 48 50 47 43 41 43 42 40 39 38 39 42 45 48 50
16 16 7 5 5 4 9 13 15 13 11 7 10 19 27 27 24 29 26 22 28 31 30 37 43 48 55 53 50 49 39 37 40 44 44 43 45 46 44 46 49 51 50 51

GFSCGP_500_spd_099.txt.gz
Wind_Speed
41 44 49 52 54 52 46 40 31 34 32 40 43 37 33 30 26 28 24 24 18 17 14 14 17 19 18 24 23 15 14 15 14 19 27 28 33 38 49 52 44 45 46 44
44 42 41 49 44 47 43 42 44 43 40 43 41 43 30 33 25 24 27 27 19 17 12 12 13 16 15 20 18 14 11 15 13 16 21 26 25 33 38 46 49 44 43 45
41 39 36 45 51 49 42 43 44 46 42 42 46 43 34 31 30 23 28 27 19 16 12 11 12 14 13 14 16 12 12 13 13 13 19 11 24 34 35 38 40 42 43 45
43 35 37 37 49 38 39 38 42 44 43 47 40 43 38 28 30 24 27 27 18 15 14 11 11 14 12 12 12 13 10 14 14 13 10 4 11 15 27 35 41 44 41 37
40 41 36 40 34 45 37 31 40 44 42 45 44 45 38 28 25 25 26 27 17 15 15 11 10 12 12 12 10 11 10 9 13 13 9 14 9 7 20 23 28 33 32 36
37 41 33 36 36 36 45 34 32 39 41 47 43 44 38 26 24 23 27 28 17 16 16 13 10 10 12 10 8 8 8 6 7 5 12 13 12 13 10 17 20 24 25 26
36 35 33 34 39 32 41 40 35 34 38 45 36 38 43 29 26 24 26 28 19 17 18 16 14 12 12 12 8 9 10 9 5 5 4 8 11 15 15 14 15 21 24 20
36 31 33 31 36 32 26 41 40 29 23 27 23 35 33 30 29 26 27 25 22 17 17 18 18 15 14 13 11 10 11 11 8 5 6 1 2 5 11 13 12 16 18 19
39 33 34 28 30 35 31 34 36 43 38 34 25 24 23 33 26 28 22 22 20 19 19 19 18 17 16 14 12 11 12 11 10 9 7 7 4 3 5 8 9 9 10 10
39 37 35 30 25 28 32 26 27 30 44 38 31 22 18 12 26 27 21 23 23 21 18 21 20 19 18 16 12 14 14 10 10 12 10 7 7 6 6 7 8 10 11 12
41 40 33 35 26 18 25 33 33 28 28 29 25 27 21 22 28 27 23 23 23 22 21 23 22 21 19 19 16 16 15 15 14 17 13 11 11 10 9 9 10 10 11 14
47 45 41 37 29 32 28 24 25 33 29 29 29 28 15 25 27 26 33 25 24 22 23 24 24 22 21 21 22 17 16 17 21 18 18 17 15 16 18 18 17 14 13 19
52 46 43 41 34 31 32 29 26 27 32 38 28 25 30 19 19 20 22 19 24 26 25 26 26 24 22 22 22 19 19 18 17 19 20 18 18 19 19 19 20 21 22 19
54 46 44 31 23 31 36 35 36 36 32 27 30 31 28 17 23 22 22 26 22 23 25 26 23 24 25 24 22 21 21 17 16 17 16 16 17 22 23 23 20 20 22 22
54 51 47 45 40 33 31 35 37 38 40 38 35 30 31 34 36 25 22 23 29 29 26 27 24 23 23 24 25 24 23 21 17 16 16 17 18 18 21 24 24 23 23 23
47 40 44 47 44 46 48 41 36 36 39 40 42 41 38 35 35 28 27 28 30 29 30 30 30 29 27 27 28 27 27 23 21 21 21 20 20 20 19 21 24 25 25 25
34 33 38 38 38 37 46 42 39 38 38 38 40 38 40 41 37 28 29 33 33 30 35 37 36 33 32 31 30 27 25 26 24 24 23 21 22 23 23 23 24 27 28 30
31 33 31 29 29 30 28 32 36 39 39 39 42 42 43 37 36 34 28 30 34 33 35 39 38 38 35 37 37 32 29 28 27 27 26 23 25 24 24 26 28 28 31 32
28 29 25 28 26 24 28 30 30 34 36 33 39 45 44 39 37 34 31 29 37 42 41 33 35 35 33 39 40 34 31 31 31 32 30 27 25 25 26 28 29 28 29 31
20 24 24 19 23 19 15 25 23 29 31 36 43 41 32 32 33 31 31 37 35 36 40 40 39 37 37 46 36 38 35 33 34 33 29 27 29 27 29 28 29 30 31 33
17 19 20 17 19 17 16 21 27 24 31 33 33 41 40 32 37 33 32 35 32 35 39 41 41 41 42 40 43 44 35 36 41 40 32 30 32 33 31 33 33 34 36 38
16 18 17 19 17 13 13 17 20 28 29 30 35 35 41 38 35 36 34 32 29 34 38 42 40 40 42 49 44 41 41 42 41 45 38 34 34 36 37 36 38 41 44 44
16 16 13 12 11 13 17 12 16 26 25 29 31 34 39 37 34 32 35 37 33 32 36 38 38 40 38 41 45 45 42 45 48 47 46 35 38 42 44 39 38 40 44 47
21 22 19 10 10 13 15 23 21 13 19 21 25 25 31 34 34 27 28 28 31 34 35 38 38 39 37 39 40 48 45 49 50 47 46 39 46 49 49 46 46 44 43 45
17 14 13 12 9 4 19 18 14 15 15 21 18 24 21 22 38 37 30 26 26 32 35 36 34 37 41 42 46 45 44 45 48 51 45 48 50 54 52 57 51 56 48 47
18 13 12 12 14 8 5 8 8 12 13 19 14 8 17 21 28 27 27 28 30 31 31 31 34 37 37 44 43 47 47 51 53 53 52 56 58 57 57 56 57 57 54 55

GFSCGP_500_spd_102.txt.gz
Wind_Speed
32 38 40 42 45 45 43 47 51 46 36 27 29 38 42 37 34 33 30 30 28 27 26 14 19 17 19 17 22 17 11 9 12 14 15 17 22 25 28 39 40 45 43 39
37 44 39 40 43 44 44 47 44 45 41 35 24 28 45 46 37 34 27 30 27 25 28 15 18 15 16 16 19 19 13 10 10 13 17 21 22 28 30 44 46 43 39 44
40 40 43 44 46 42 42 38 44 43 48 46 37 45 44 42 37 34 29 28 29 24 28 15 18 15 15 13 16 17 15 11 11 14 15 22 26 29 26 43 45 46 40 39
43 41 45 45 45 47 40 33 33 45 41 50 40 48 45 42 33 32 33 25 30 24 23 18 19 15 13 11 13 15 14 12 11 15 17 15 23 14 23 37 40 44 47 41
41 43 45 48 42 40 42 37 33 40 41 46 46 49 42 36 35 32 28 20 26 24 19 21 17 16 15 11 10 13 11 12 11 12 16 14 9 19 16 28 28 39 45 46
42 42 45 48 41 36 37 37 32 37 42 49 44 46 46 42 34 26 20 21 26 23 18 20 18 17 15 12 8 10 11 12 12 11 12 14 10 16 12 14 28 37 39 37
40 41 43 40 42 34 36 39 36 36 43 46 36 41 43 37 31 26 18 26 27 22 19 21 21 18 17 14 10 8 11 10 10 10 11 10 9 7 9 10 5 18 22 29
42 38 24 34 38 32 33 40 38 35 41 30 28 32 32 22 24 29 29 20 26 21 20 20 22 17 19 16 13 9 5 11 9 9 10 9 8 4 4 8 8 5 15 20
41 35 26 34 36 30 29 38 30 28 30 31 25 27 19 19 23 29 30 30 21 24 19 21 21 18 19 17 15 13 10 11 10 6 7 8 6 6 4 3 9 5 9 15
38 37 32 27 34 29 26 30 28 26 32 38 27 26 20 24 26 24 24 23 22 24 23 21 21 19 18 17 16 17 12 9 11 12 8 6 6 2 2 3 5 7 7 8
50 50 44 38 26 26 22 26 33 27 25 34 29 35 23 17 15 19 24 25 19 24 27 22 22 21 18 18 18 18 17 12 9 13 13 9 7 6 4 5 7 8 6 6
49 48 49 37 27 22 26 24 29 27 31 30 26 35 17 20 28 28 30 20 22 25 26 23 23 20 19 18 19 18 20 16 14 13 15 15 13 11 12 13 11 10 8 8
49 45 45 43 43 27 30 27 22 20 18 37 28 29 34 22 19 17 33 34 31 33 26 25 24 21 20 21 20 20 21 20 17 17 13 13 14 15 17 16 14 14 15 17
47 45 44 31 29 38 36 34 33 30 29 24 34 28 31 13 25 15 26 33 34 20 29 27 25 23 24 23 23 20 21 20 19 18 15 13 13 14 16 19 17 16 16 16
38 42 45 50 36 35 36 40 39 41 38 18 20 34 30 25 25 25 33 34 29 27 14 18 22 25 25 25 25 23 23 22 20 19 17 16 13 14 14 17 21 23 22 22
39 41 41 49 47 46 43 32 44 45 44 42 39 35 30 23 37 26 20 21 23 24 31 15 25 26 26 24 24 24 24 24 23 21 20 19 18 16 18 17 17 19 21 23
25 23 30 37 35 42 53 42 35 43 35 35 39 36 36 36 35 34 29 35 34 28 24 34 18 28 30 31 30 27 27 27 26 23 19 22 21 21 20 21 22 21 22 24
20 17 22 23 25 32 36 45 44 40 37 36 39 37 34 33 36 36 29 31 36 32 32 31 33 33 22 27 32 32 30 30 28 25 24 23 24 24 24 21 20 24 25 26
24 27 23 24 21 17 21 25 30 39 38 45 41 39 36 37 33 27 24 34 34 34 41 39 37 38 40 35 35 34 35 36 35 30 28 26 29 23 25 24 25 25 25 25
22 30 27 18 18 20 22 24 33 32 32 32 32 36 37 34 28 25 26 31 37 37 40 35 40 39 41 43 39 39 38 38 36 35 32 30 26 28 27 26 27 28 29 30
11 14 18 20 17 21 31 27 32 32 31 27 28 30 32 33 30 25 28 25 32 36 41 39 40 40 40 39 40 38 37 40 46 39 37 36 31 36 35 29 29 30 31 34
4 10 13 17 19 16 24 23 24 27 29 27 33 36 37 34 34 33 33 31 30 26 32 35 39 41 41 43 43 43 41 43 39 36 39 42 41 41 41 37 34 35 35 37
14 9 10 9 11 6 15 22 22 28 35 37 34 34 37 37 33 34 36 33 34 32 31 33 38 41 41 40 42 46 46 44 45 45 45 42 43 47 45 41 41 41 44 45
14 9 18 8 11 11 17 21 20 25 28 35 33 33 32 31 28 31 33 33 33 34 35 35 36 40 41 41 42 43 44 46 50 50 48 46 49 50 49 47 48 45 50 51
23 17 19 19 13 14 18 21 19 20 14 20 21 21 22 24 19 14 24 29 27 30 31 34 37 38 41 42 43 46 46 46 46 51 51 51 51 52 48 54 51 50 51 52
21 16 16 14 13 19 16 11 14 21 15 19 25 23 12 25 25 29 21 29 32 28 29 31 35 41 45 44 43 44 45 46 46 49 53 55 56 55 59 60 59 51 55 58

GFSCGP_500_spd_105.txt.gz
Wind_Speed
36 42 42 32 36 36 38 41 44 43 45 48 41 45 40 40 33 23 27 37 33 29 30 24 13 18 21 18 18 19 21 15 11 9 10 11 13 16 11 12 22 32 34 31
42 45 31 36 38 39 40 43 44 44 47 46 43 40 39 43 38 30 31 37 30 25 31 26 11 18 19 18 16 15 17 18 11 8 10 13 14 15 15 19 24 32 41 37
42 42 38 38 38 40 40 46 46 46 47 46 39 42 37 43 44 41 33 35 30 26 32 28 14 19 19 18 14 13 15 16 14 9 12 14 12 12 18 30 34 33 42 38
48 39 37 36 39 42 44 45 46 46 45 46 36 43 40 44 41 49 24 24 28 29 34 26 16 20 18 18 13 12 13 12 13 12 12 13 13 13 16 23 27 36 38 41
43 38 37 39 39 40 44 46 49 49 43 39 36 39 32 47 42 33 31 31 28 29 33 25 16 20 19 18 13 10 12 12 12 12 11 12 10 13 19 12 18 34 35 45
41 33 37 37 37 40 45 46 41 42 39 43 33 34 39 47 45 41 31 22 22 24 29 22 15 21 19 18 12 8 13 13 11 12 11 11 10 6 14 20 12 44 40 35
34 34 35 39 40 40 44 42 39 45 42 39 30 33 37 37 43 34 23 19 24 26 27 19 14 18 18 19 14 9 12 10 8 10 9 8 7 5 3 11 6 18 32 34
37 39 34 35 40 38 42 37 40 40 35 35 35 30 25 15 26 23 22 26 24 24 21 19 16 20 21 20 17 11 10 11 9 9 9 6 6 3 6 4 6 5 21 33
38 42 29 35 37 35 31 32 26 37 36 38 37 26 14 24 25 23 27 26 26 31 25 19 19 21 22 22 20 14 13 13 10 6 8 6 4 4 5 4 5 5 3 22
43 45 35 32 33 34 33 24 29 31 34 33 33 18 19 25 25 36 34 35 24 33 32 24 23 23 23 24 21 15 12 13 11 8 7 8 5 2 5 7 7 11 12 11
39 43 37 36 34 18 23 29 25 30 33 29 25 26 28 26 34 40 38 43 36 33 32 27 24 25 25 26 21 16 13 13 12 11 8 9 7 3 2 5 7 7 7 8
43 42 36 40 33 31 33 23 28 26 31 27 29 23 30 22 13 20 28 39 33 31 24 27 27 25 25 24 22 18 15 14 14 13 12 12 10 9 6 6 6 6 7 10
46 44 41 39 38 35 40 44 35 34 31 31 28 19 28 33 20 27 33 36 34 33 22 18 24 24 24 25 24 20 19 17 16 15 14 13 11 12 13 12 11 12 13 13
45 45 43 40 33 36 46 52 36 22 32 32 31 25 28 32 31 25 34 37 26 28 19 22 27 23 25 26 27 25 20 18 18 17 14 13 12 10 13 13 15 15 15 16
41 44 41 38 37 34 45 52 57 31 28 35 23 31 32 16 30 21 32 51 23 27 31 32 28 32 27 27 27 27 23 20 19 19 17 17 14 11 11 14 14 18 20 21
41 41 39 39 32 32 44 40 52 41 37 40 41 15 38 28 31 19 20 23 29 36 30 31 27 30 33 27 27 28 24 23 21 19 19 18 18 15 13 13 17 16 19 21
31 25 22 26 26 33 47 42 40 49 47 45 39 34 30 28 28 33 32 21 32 38 37 32 33 30 31 31 28 28 25 25 22 22 20 17 17 18 17 17 16 18 19 21
31 24 20 14 11 23 20 35 40 38 36 46 44 39 38 35 35 38 31 29 26 30 27 28 37 28 19 18 33 31 27 27 27 25 22 16 18 19 17 18 18 19 21 22
24 24 22 11 17 12 19 20 35 44 47 35 40 43 38 36 31 34 29 24 29 34 36 33 34 33 34 32 29 23 33 29 27 26 25 22 20 18 20 23 22 21 20 20
15 22 25 15 19 17 22 24 29 34 37 32 31 35 35 35 32 36 31 28 32 33 34 37 39 37 35 39 40 31 24 21 27 28 29 31 30 27 25 26 26 25 25 24
9 19 28 20 21 24 20 28 27 29 39 42 42 39 34 31 29 28 29 31 33 35 38 36 38 41 42 39 38 39 35 31 35 35 36 35 34 34 33 31 30 33 33 32
4 9 17 25 25 13 18 26 24 22 29 34 36 37 34 29 27 24 30 32 34 37 39 41 43 44 46 43 39 37 36 39 40 40 38 36 40 41 37 37 33 37 43 42
8 10 11 10 8 8 13 21 28 27 26 29 33 36 35 33 32 30 29 30 32 31 32 38 42 43 45 45 43 43 41 42 42 41 42 41 42 39 37 40 41 47 43 43
3 15 9 7 7 8 3 14 19 27 28 28 31 36 36 34 33 36 39 35 35 34 35 35 37 41 44 45 46 47 47 45 44 44 45 45 45 43 44 44 46 44 50 44
4 12 4 2 11 4 11 12 16 18 24 23 27 32 37 36 36 31 31 34 34 37 37 39 42 41 40 41 44 47 47 48 46 46 46 47 47 49 51 53 50 52 46 50
13 12 7 11 13 13 11 17 17 19 18 16 12 15 21 16 22 25 29 27 24 28 38 39 39 40 43 44 44 47 49 48 47 48 48 48 50 50 54 52 53 54 52 56

GFSCGP_500_spd_108.txt.gz
Wind_Speed
36 40 38 26 31 36 38 37 38 37 34 41 42 44 40 42 39 41 40 44 44 45 26 31 26 13 20 24 19 18 20 19 18 17 14 12 13 10 7 6 17 33 37 37
39 40 29 32 36 36 36 38 37 37 37 43 44 45 42 42 35 41 40 42 41 41 34 28 26 11 19 21 19 18 18 18 15 15 14 12 11 11 12 13 13 20 30 37
37 38 31 35 34 37 36 38 35 40 40 41 45 45 42 37 35 40 38 38 37 40 27 24 25 15 16 19 19 17 18 16 14 13 13 14 12 13 13 15 17 16 21 25
41 38 32 33 36 36 38 34 39 40 41 44 42 52 41 35 34 37 35 37 37 36 31 28 27 17 17 21 19 18 17 15 13 13 11 11 14 17 19 16 20 22 28 34
39 35 32 35 34 36 40 36 37 39 42 44 44 53 35 35 29 32 37 41 35 35 29 29 25 21 19 23 18 17 17 15 13 14 14 10 11 16 20 19 20 21 30 35
39 32 34 32 33 36 36 39 41 42 44 48 41 45 39 29 28 26 42 39 35 34 33 27 22 21 22 23 19 17 16 15 13 15 13 10 10 13 15 14 17 26 38 28
35 36 35 37 39 37 39 41 43 45 46 48 41 42 37 28 27 29 42 40 38 33 33 27 22 16 22 22 20 17 16 15 10 11 12 10 9 11 13 9 7 21 37 41
40 39 34 38 44 40 41 42 44 45 46 43 41 47 30 26 29 29 34 35 28 34 28 25 21 18 20 23 21 16 17 16 13 14 13 8 8 7 10 8 5 10 37 38
41 40 35 43 42 42 40 40 40 37 36 39 41 35 29 27 30 30 29 41 38 34 23 24 24 20 23 26 19 19 19 18 16 14 15 7 4 6 4 11 7 4 22 34
44 42 38 41 39 34 39 38 40 39 39 41 35 24 28 25 28 26 29 40 42 39 36 33 25 22 26 23 23 21 21 20 17 14 15 9 3 3 3 3 6 12 14 26
48 44 41 39 37 35 32 34 43 44 39 37 33 29 24 22 29 38 28 45 41 36 33 34 31 27 26 24 24 23 22 21 19 16 14 12 6 4 5 6 8 8 15 19
48 45 40 35 32 38 37 41 38 37 35 36 34 28 23 28 38 35 23 44 40 35 39 39 33 28 28 27 25 24 24 23 21 18 14 13 10 9 9 9 8 10 7 8
53 51 44 35 30 34 42 44 41 31 30 29 36 35 26 28 28 28 8 38 47 28 40 38 41 38 33 28 28 27 25 26 23 19 17 13 10 10 13 13 13 12 11 13
42 43 41 37 36 39 44 42 45 45 37 36 38 32 29 28 31 33 20 39 48 48 37 34 35 44 38 34 31 30 28 26 24 21 17 14 11 10 12 15 17 17 17 18
49 48 45 43 43 40 38 38 38 50 46 46 26 34 32 31 33 26 25 23 49 48 45 37 29 42 40 38 35 33 30 27 24 21 19 16 13 10 11 12 15 18 20 19
41 45 51 44 42 39 40 38 40 49 53 48 41 24 34 24 34 20 16 20 38 29 42 48 39 23 42 37 35 33 30 27 26 23 21 19 16 13 12 13 12 16 17 20
34 37 38 37 34 36 38 30 37 44 44 44 51 47 26 22 25 29 12 15 15 41 27 25 32 27 23 25 38 35 33 30 28 26 23 21 18 15 15 15 14 13 13 18
28 31 33 31 25 31 16 26 37 40 34 40 50 44 34 27 30 27 26 20 20 16 39 24 26 31 31 29 31 39 36 34 31 28 26 24 19 17 15 15 16 15 14 15
27 29 32 30 22 18 14 22 21 31 37 39 43 44 39 35 33 33 29 25 27 22 21 28 29 34 35 32 35 39 39 38 35 33 30 26 23 17 17 17 18 18 18 17
14 15 26 26 22 20 14 17 11 18 35 36 35 38 37 35 33 31 27 28 23 26 22 27 28 37 36 41 31 30 29 31 33 32 29 25 23 23 25 20 22 23 22 22
9 10 12 18 24 17 12 10 23 11 16 29 39 31 28 26 30 32 27 24 27 27 30 31 33 38 41 37 36 33 32 33 22 32 31 29 31 29 29 29 29 30 30 30
12 18 10 25 21 8 10 18 16 21 24 25 30 34 31 29 28 29 32 29 33 32 34 38 38 38 42 42 39 35 33 34 32 31 33 27 31 31 34 32 31 32 34 39
2 4 10 18 15 10 13 17 22 18 24 28 28 32 35 34 33 31 27 28 31 33 37 34 36 37 39 41 38 37 39 39 34 34 32 30 34 36 36 38 33 37 37 42
7 9 13 13 16 13 10 15 18 13 22 24 24 26 29 32 35 34 33 31 31 36 36 38 42 41 41 44 44 44 45 44 42 40 38 37 40 40 40 38 41 39 40 43
18 10 7 8 15 10 12 8 13 15 15 23 26 25 29 34 37 37 37 34 36 35 36 39 38 37 41 46 45 46 45 45 44 43 44 44 44 44 44 45 45 47 47 46
3 5 8 6 5 9 9 6 11 13 16 18 21 21 22 24 27 33 36 37 41 39 41 42 43 43 41 41 43 44 46 48 48 49 49 48 46 44 45 46 47 49 47 49

GFSCGP_500_spd_111.txt.gz
Wind_Speed
46 47 48 39 36 38 43 42 41 38 34 40 34 37 32 33 37 37 39 39 35 36 39 42 39 38 33 26 24 19 19 17 18 23 25 21 16 15 14 11 14 45 42 49
47 48 42 40 41 40 42 43 38 35 33 41 38 37 32 36 37 40 39 38 34 33 40 44 43 38 26 24 22 18 19 17 15 20 21 19 14 14 11 10 11 31 42 48
42 40 41 43 40 44 43 39 37 36 38 41 40 40 34 35 37 38 36 41 33 34 41 45 45 35 22 22 19 19 20 17 14 16 19 16 15 13 14 11 12 16 38 43
45 44 44 42 42 45 40 39 38 39 42 42 40 43 33 37 34 37 36 43 34 37 41 45 40 33 23 22 22 20 21 17 13 15 19 18 13 14 16 16 18 18 19 36
42 43 42 44 42 44 42 42 41 43 43 44 38 49 31 36 33 36 37 39 33 37 40 41 34 31 26 26 26 22 19 17 13 15 18 19 15 14 16 18 21 20 22 24
46 46 43 44 42 43 41 44 44 44 43 47 36 46 36 35 31 36 34 32 31 35 39 41 35 30 29 29 28 25 19 16 14 15 16 17 16 15 17 18 21 25 26 28
40 40 40 42 45 46 45 45 47 47 46 45 37 45 38 35 30 35 33 30 31 33 40 37 36 29 29 30 25 22 18 16 16 14 15 17 18 16 17 18 19 21 29 34
45 44 44 45 46 47 47 47 49 49 47 43 40 45 38 35 37 34 32 30 30 35 48 40 30 28 28 30 23 18 18 18 17 16 17 19 19 17 15 15 18 26 33 33
53 53 53 51 50 49 48 49 47 48 47 48 44 41 37 37 34 33 31 31 32 36 45 35 34 34 27 26 23 21 22 21 18 18 18 18 18 17 15 14 18 25 17 34
55 53 55 52 49 47 47 47 45 43 44 46 41 38 37 31 30 35 34 35 32 35 45 39 40 36 32 30 26 21 24 23 19 19 18 17 15 16 13 12 9 17 13 25
55 52 51 51 47 46 46 47 47 46 38 43 43 38 36 36 34 34 34 37 31 39 41 42 38 36 37 36 30 24 26 24 21 21 18 17 16 16 12 12 10 7 13 15
53 54 48 46 43 41 45 44 45 37 38 41 44 34 35 34 33 31 35 35 29 40 46 46 46 44 41 37 32 28 26 24 23 22 20 18 16 13 17 12 13 9 8 12
39 40 40 42 43 43 36 39 40 46 48 34 51 43 35 35 35 36 33 32 30 40 47 50 44 45 45 39 34 30 29 27 25 24 21 20 17 15 14 18 15 12 10 7
37 36 47 49 46 42 43 40 37 41 46 51 46 39 34 31 33 38 32 16 19 24 46 50 51 48 47 39 37 33 32 31 28 25 23 21 19 16 14 13 19 18 15 13
41 52 50 47 45 46 42 39 38 40 43 47 43 38 29 23 28 27 27 11 12 25 39 49 51 54 47 40 39 37 36 34 30 27 25 22 19 17 16 14 12 20 20 19
48 42 44 41 42 45 46 45 42 44 45 46 49 46 39 25 22 21 24 15 17 4 34 48 53 52 41 45 45 43 40 37 34 31 28 23 20 19 16 15 13 10 18 21
44 44 46 49 49 50 49 36 38 39 42 38 45 42 41 35 35 14 15 21 13 10 26 39 48 44 48 56 48 43 42 39 35 33 32 28 24 21 19 17 15 12 12 16
32 35 38 37 40 43 33 35 34 36 32 36 45 44 43 39 42 25 24 22 18 15 16 31 53 50 44 57 52 41 41 40 40 37 35 31 28 26 22 15 17 18 15 15
25 29 32 35 36 32 28 21 27 24 24 31 39 42 35 32 35 39 24 20 20 16 15 19 27 50 35 32 45 49 41 39 40 40 38 36 33 28 22 19 18 18 16 16
8 17 20 19 28 32 19 23 21 12 13 20 30 30 32 30 33 27 26 25 21 22 19 15 22 26 31 27 30 26 30 34 41 39 41 39 35 30 26 25 22 21 20 19
6 11 12 17 17 17 15 18 18 15 3 12 24 29 30 31 35 30 25 25 25 21 18 15 16 19 30 29 32 31 30 33 36 38 39 43 37 34 34 32 26 24 25 26
13 13 7 15 11 16 15 19 14 15 8 5 10 24 32 28 25 25 21 21 24 20 18 19 22 20 25 30 32 29 26 28 32 33 29 31 39 39 37 34 31 31 29 33
11 6 6 6 14 10 14 20 11 9 21 16 17 15 21 27 27 27 25 19 24 23 25 23 25 27 29 31 32 32 30 31 32 31 30 25 25 36 38 38 35 32 31 32
14 4 3 6 10 11 12 15 13 7 4 8 15 20 20 21 27 31 29 24 25 26 27 27 25 30 30 35 37 38 34 34 38 38 38 36 32 31 30 28 32 30 43 42
7 7 8 8 5 14 15 17 16 12 14 14 12 13 20 23 24 27 30 28 27 28 28 28 32 31 33 36 39 42 43 38 39 41 42 44 42 40 40 37 39 40 39 41
3 9 16 7 4 15 11 4 9 6 10 13 16 15 12 17 22 25 28 30 32 34 31 33 34 36 36 38 40 42 42 44 45 45 43 42 42 42 45 45 43 42 42 42

GFSCGP_500_spd_114.txt.gz
Wind_Speed
56 57 59 50 44 40 41 42 44 48 47 46 45 42 43 40 37 34 31 34 33 35 34 40 42 37 29 33 34 32 34 34 25 20 19 18 22 24 22 21 25 36 26 38
53 53 49 46 45 44 48 50 49 44 45 46 43 41 42 39 36 33 33 33 36 36 35 40 41 35 30 33 34 33 34 34 24 19 17 18 18 22 20 20 21 32 22 29
48 46 48 45 41 41 41 42 42 44 45 46 49 50 44 39 35 33 35 37 36 36 37 39 38 35 33 33 36 33 35 34 24 17 16 16 17 20 21 18 17 19 20 23
45 42 44 45 47 43 44 42 43 45 50 49 46 47 41 37 34 35 35 37 36 37 36 41 37 38 34 35 39 35 37 30 22 17 17 15 14 18 20 15 18 13 14 27
40 41 40 42 41 44 45 45 48 50 51 51 47 50 40 35 33 35 35 37 38 36 39 40 35 35 36 33 31 34 37 31 21 17 16 14 14 17 18 15 15 17 13 10
42 44 45 45 47 48 48 48 47 50 52 54 47 50 33 34 38 38 34 34 38 39 41 39 31 33 38 34 32 32 35 30 20 19 16 13 12 14 17 17 14 15 16 17
45 44 48 48 49 49 50 49 50 51 53 53 47 50 38 39 38 38 37 35 40 40 42 36 32 35 37 35 32 34 34 30 21 20 17 13 13 15 16 17 17 17 19 21
46 45 47 49 50 49 50 52 54 55 55 54 51 50 44 40 40 40 38 37 41 42 41 38 35 40 37 39 34 34 30 31 24 21 18 14 15 17 15 17 17 17 21 23
48 49 49 50 51 50 51 52 51 52 55 55 51 47 47 45 41 39 40 41 41 40 44 42 37 40 40 40 34 33 31 30 25 22 20 15 16 17 15 16 16 16 22 27
49 53 52 51 53 53 51 49 47 49 50 53 53 51 51 46 43 42 42 42 41 44 45 43 40 46 42 36 34 36 33 33 25 23 22 17 17 17 15 15 15 16 18 27
55 54 55 51 48 47 46 46 48 49 50 51 54 53 51 46 43 42 42 42 44 43 42 41 39 48 43 37 37 35 36 30 27 26 24 19 17 18 16 14 13 16 14 14
50 53 52 46 48 47 47 45 45 45 46 49 52 53 48 47 46 46 44 38 39 34 42 38 39 43 44 39 40 38 35 30 32 28 25 20 19 18 16 14 14 15 16 15
34 49 52 50 44 43 48 47 46 39 40 45 48 55 39 40 42 42 38 36 38 26 37 37 38 48 45 42 43 42 38 35 33 30 26 22 21 19 15 16 14 15 13 15
45 35 41 45 39 41 49 43 44 45 44 44 46 50 52 49 41 43 37 40 35 24 31 30 42 50 45 44 47 45 43 37 34 32 28 26 24 20 15 15 12 15 16 13
44 39 33 39 41 45 47 36 37 44 46 51 46 47 45 46 44 36 36 38 30 18 22 22 45 50 49 49 45 46 48 38 36 33 30 28 25 22 18 15 12 12 16 17
40 48 37 36 35 35 42 44 41 46 51 53 51 52 36 44 45 34 28 19 24 21 13 14 40 53 51 49 48 53 50 42 39 36 34 32 28 25 21 19 15 11 12 18
26 38 51 46 39 38 44 40 43 47 43 46 46 38 42 39 41 37 24 19 26 24 17 17 15 54 55 48 47 49 44 45 41 40 38 35 31 28 25 22 18 15 14 14
20 24 34 41 49 49 44 43 45 49 41 41 37 28 34 37 35 37 37 29 24 17 18 15 15 50 57 55 51 42 44 41 41 43 41 39 35 33 29 24 22 20 18 16
18 21 25 30 34 41 41 43 38 36 24 29 28 27 31 33 32 33 32 37 28 17 15 14 15 47 57 60 61 57 54 45 42 47 45 44 39 34 30 28 27 24 22 19
8 11 12 14 19 20 22 28 24 20 12 17 19 22 28 28 26 26 30 33 25 21 14 11 15 30 47 51 54 52 47 34 50 46 43 42 41 38 35 32 32 28 26 24
8 11 14 15 16 15 12 17 19 22 15 12 12 14 18 18 22 23 26 30 32 15 10 11 12 5 25 45 44 11 37 44 32 35 35 38 35 35 37 39 37 34 30 28
9 12 10 6 4 5 12 12 14 11 9 9 6 11 13 19 20 20 25 25 17 14 12 11 12 8 17 32 48 47 25 25 26 35 36 36 38 36 42 40 39 40 37 34
17 1 6 3 7 13 12 14 15 5 11 9 15 13 6 10 18 21 22 20 16 15 15 13 11 14 15 22 34 53 30 31 30 28 25 28 35 29 38 45 43 42 41 34
15 14 10 8 4 8 13 15 18 3 4 6 5 8 10 7 11 17 20 22 20 18 16 16 16 16 17 22 25 34 32 29 29 30 27 22 33 28 26 43 51 48 39 35
9 10 10 4 2 5 6 15 11 8 10 8 7 10 9 9 13 14 22 25 24 23 21 18 20 18 18 22 24 26 27 29 29 29 27 26 30 35 34 27 37 41 36 40
6 6 11 7 6 1 4 5 12 11 5 9 12 16 15 11 14 17 20 24 26 27 26 20 21 20 23 23 25 27 29 33 33 32 32 34 35 36 38 40 43 41 39 41

GFSCGP_500_spd_120.txt.gz
Wind_Speed
51 51 51 52 54 56 57 58 56 53 54 55 50 52 53 53 48 45 41 40 42 42 47 45 45 43 39 35 33 34 33 32 33 29 32 31 31 28 28 30 27 24 20 19
51 51 50 53 56 57 61 61 58 56 58 53 50 52 53 52 45 44 45 44 48 49 46 50 47 43 38 36 34 35 33 33 31 30 34 31 30 28 30 29 26 26 23 21
46 47 52 55 56 58 61 59 59 54 51 52 53 56 53 56 51 45 42 42 42 43 43 47 46 42 38 38 38 35 33 32 30 31 33 30 29 28 30 29 26 27 24 22
47 48 53 55 56 56 58 57 58 47 49 54 50 52 50 57 48 42 41 39 39 41 44 45 46 39 38 40 38 35 34 31 29 32 31 31 32 30 30 28 27 27 25 22
42 46 46 52 53 52 54 52 51 52 50 45 53 53 47 59 52 48 44 42 42 40 41 43 41 41 39 42 40 35 35 30 29 33 32 32 32 32 30 26 26 25 23 21
43 43 46 47 50 52 54 52 49 46 40 49 44 44 35 46 46 49 49 46 42 40 43 47 46 41 45 42 37 35 35 29 29 33 31 34 34 33 31 26 26 24 21 20
47 45 45 44 47 50 51 51 44 46 50 51 31 46 40 41 54 49 46 41 40 43 45 47 48 45 46 40 37 35 35 28 30 33 33 36 36 34 30 26 26 24 21 19
46 37 42 42 41 41 49 47 44 37 31 33 35 45 43 51 49 46 44 43 44 44 44 49 49 48 47 41 37 37 33 27 34 34 34 36 38 31 30 28 27 26 21 19
47 43 37 38 39 37 41 49 42 35 32 33 29 37 46 49 48 46 45 42 41 45 48 47 47 47 46 44 41 37 35 29 35 35 36 37 38 32 30 28 29 25 20 19
45 47 37 31 26 32 36 32 36 42 42 40 31 27 27 40 42 41 43 45 45 44 44 47 47 48 49 46 42 39 36 32 35 38 39 39 36 33 30 29 30 25 19 17
35 44 38 34 30 24 24 21 25 31 32 33 30 30 33 40 44 44 45 44 45 44 45 45 46 48 50 47 42 40 37 35 38 41 41 40 36 35 30 30 31 26 20 16
29 33 32 36 38 38 30 32 30 35 29 31 30 24 31 34 37 37 42 44 45 46 47 47 47 50 49 46 41 40 40 35 40 44 43 43 36 34 30 31 31 27 20 19
22 24 24 20 38 43 48 42 37 26 34 30 26 24 37 42 40 43 46 48 48 48 49 47 48 50 50 49 43 42 42 38 41 45 46 45 36 35 31 31 31 27 20 21
21 22 19 21 24 35 42 30 38 40 37 33 34 27 32 35 38 46 45 48 50 51 51 48 44 48 48 49 45 45 44 42 43 47 48 45 40 37 33 32 31 28 21 21
14 17 22 27 34 34 28 38 37 37 38 39 38 42 41 38 45 48 47 49 51 50 51 50 43 43 44 47 47 44 47 41 44 51 51 46 40 39 35 33 32 27 22 21
12 13 18 23 28 35 45 36 30 37 38 37 37 41 36 43 44 49 50 49 47 50 51 49 45 42 44 43 45 37 37 39 46 52 51 46 42 40 36 35 33 27 23 22
14 14 18 17 21 31 40 43 34 38 42 39 38 36 41 41 42 45 47 48 48 48 47 48 42 41 42 42 37 33 35 38 50 54 52 47 44 41 37 37 34 28 25 24
7 8 10 10 11 18 20 36 39 42 35 33 35 36 43 45 45 47 48 46 46 46 47 46 41 40 40 41 42 34 33 39 50 54 54 49 46 43 38 38 35 31 27 25
1 5 3 2 4 4 5 14 27 40 42 42 42 40 41 43 46 48 52 44 35 38 37 40 42 37 37 40 34 35 34 39 54 58 56 50 46 45 39 39 37 34 30 27
14 12 13 12 12 10 1 6 10 12 19 34 43 48 51 47 32 33 32 32 31 30 32 34 35 32 34 38 31 34 39 50 45 55 55 51 44 44 39 41 40 36 33 29
8 8 9 7 8 8 7 8 12 10 9 13 14 13 15 16 19 20 20 21 24 28 30 27 33 27 27 30 34 42 45 49 53 51 50 41 43 44 41 39 42 41 37 32
8 6 9 6 5 7 8 3 4 4 4 5 2 6 4 9 14 8 14 14 20 25 27 21 31 27 24 27 35 36 42 51 43 55 57 46 41 44 47 42 42 43 42 36
14 7 9 12 9 7 5 6 7 3 4 5 6 3 1 6 9 10 12 13 19 24 23 22 26 32 24 29 33 39 47 41 50 41 47 45 46 43 43 39 39 43 47 41
11 15 15 8 6 7 7 4 7 9 7 6 6 5 5 6 10 11 11 14 19 21 21 18 23 16 18 20 26 37 39 51 41 35 56 56 47 50 48 45 40 38 33 32
7 9 14 19 17 5 5 4 3 9 7 3 2 3 7 12 16 17 15 12 14 20 21 22 19 11 9 10 13 28 41 43 42 44 36 50 47 39 46 44 41 30 31 32
1 4 6 12 12 16 13 10 8 3 1 3 4 7 9 10 17 18 20 17 15 18 15 18 18 11 11 10 10 11 18 43 44 52 46 36 39 38 35 33 44 40 38 35

GFSCGP_500_spd_123.txt.gz
Wind_Speed
43 42 46 50 51 50 53 56 58 54 56 38 53 56 52 49 52 56 48 47 48 48 47 48 47 47 43 42 40 41 37 37 37 36 37 35 33 32 31 29 26 24 25 27
43 43 43 46 49 51 54 57 56 58 56 46 56 58 52 51 53 60 49 46 45 46 49 46 44 43 43 44 43 41 38 38 36 36 37 35 32 32 31 30 26 24 26 26
43 42 46 46 46 50 54 56 55 59 49 56 60 61 58 57 55 53 49 45 44 48 46 51 46 48 49 49 45 45 41 37 35 39 36 37 31 33 31 27 27 23 26 28
43 43 43 47 49 49 52 52 55 59 59 62 50 57 51 53 54 60 49 46 46 45 47 48 49 50 50 48 46 45 41 40 38 40 35 36 30 34 34 29 28 24 27 29
47 46 47 47 47 48 46 52 55 57 59 57 56 54 49 25 38 52 52 47 41 44 45 45 46 47 48 46 45 44 41 40 39 41 35 35 32 35 35 28 29 25 27 29
53 46 45 52 45 47 48 47 52 58 57 59 51 44 39 30 32 27 42 47 48 46 44 42 44 45 47 45 45 41 43 41 41 41 34 33 33 36 34 30 29 25 28 29
49 41 35 36 45 44 45 45 45 51 56 53 36 38 45 29 29 27 39 46 45 48 48 48 47 46 46 47 43 44 42 40 42 40 35 33 34 36 33 33 30 25 28 30
51 47 30 34 38 34 35 40 43 45 44 41 36 36 29 35 38 44 48 31 33 40 43 44 46 48 50 49 50 44 44 42 41 40 35 32 36 35 34 34 30 26 27 30
40 38 28 34 34 29 29 39 32 35 30 34 32 21 38 40 43 46 48 46 45 39 42 46 48 49 47 47 46 45 44 42 40 37 34 31 37 37 37 35 29 28 28 29
39 31 27 26 31 24 27 31 29 35 38 42 32 28 33 38 42 39 44 45 39 39 39 43 45 49 50 47 42 43 45 44 42 38 34 33 38 40 39 34 28 29 30 28
32 28 28 24 22 30 30 29 30 33 35 37 29 35 27 28 27 30 35 35 37 39 40 42 45 43 45 50 53 47 44 45 43 39 37 35 40 43 41 35 30 30 31 29
22 25 23 22 27 30 38 29 28 26 23 30 37 27 25 33 39 35 37 38 39 39 36 37 38 40 43 44 48 48 47 44 45 41 39 35 39 46 40 36 33 32 31 29
20 17 15 11 20 25 32 48 35 29 32 29 26 24 27 30 36 38 38 40 35 32 34 36 37 38 40 44 45 46 48 45 46 42 40 37 37 46 40 36 35 32 31 28
20 19 20 17 20 25 28 38 39 42 33 30 25 31 21 35 16 23 41 37 35 35 35 36 39 40 41 40 44 45 49 48 42 40 41 40 38 45 44 38 37 33 31 30
9 14 18 22 25 27 24 24 26 40 36 34 29 21 20 18 21 24 33 38 42 43 42 42 42 43 43 42 43 44 42 48 43 42 41 40 39 44 46 40 38 35 31 31
2 13 15 17 18 23 37 32 23 30 32 34 30 39 35 36 26 43 44 43 41 41 45 47 48 48 48 41 42 45 42 43 44 43 43 41 42 46 47 42 39 36 33 32
9 10 11 16 13 21 24 35 37 30 30 33 37 33 30 38 40 43 43 42 45 48 49 49 51 52 51 44 42 42 43 40 43 43 44 42 44 49 48 43 41 38 34 33
4 7 10 9 8 11 8 14 25 34 42 30 31 32 35 42 46 42 42 49 52 51 49 48 48 50 51 45 43 41 41 40 42 43 40 40 47 50 48 45 45 39 36 34
9 9 12 10 7 7 3 6 13 30 43 42 38 37 46 50 43 43 51 47 45 44 46 48 46 45 46 43 40 41 40 41 40 35 36 42 47 51 49 46 45 40 38 36
5 5 6 5 6 8 11 6 10 7 14 39 51 47 48 50 50 52 48 44 37 30 33 37 41 43 41 38 39 39 42 43 37 37 38 41 48 53 50 45 45 39 39 38
2 2 6 4 4 5 9 8 8 8 9 15 19 22 18 19 14 15 19 21 22 24 25 27 34 37 37 37 36 40 43 42 40 43 44 39 50 52 50 47 46 45 43 40
8 5 6 4 6 6 8 3 2 5 6 7 6 5 5 3 6 9 14 14 20 19 21 22 24 28 28 28 32 38 44 40 43 45 49 41 51 54 48 49 44 46 42 45
9 12 7 9 6 3 2 5 7 1 5 9 6 2 2 3 6 9 12 13 16 18 20 21 22 26 26 29 29 34 39 42 42 44 43 54 55 61 49 46 45 38 43 44
6 10 13 11 3 2 2 4 5 15 8 4 4 4 5 7 11 15 17 18 17 18 20 20 24 29 25 26 34 31 36 36 38 41 38 48 55 48 47 43 39 40 39 41
2 2 4 10 8 2 1 2 7 8 7 1 3 4 8 12 11 15 20 20 20 20 19 22 25 29 24 24 31 30 31 34 39 37 40 47 51 56 56 45 43 41 38 38
2 5 1 5 8 7 4 4 1 0 2 6 4 8 11 12 14 19 22 18 15 18 21 20 24 24 25 19 17 17 18 30 34 27 45 48 44 51 58 48 47 45 44 42

GFSCGP_500_spd_126.txt.gz
Wind_Speed
43 43 43 45 48 44 45 50 52 51 53 45 43 58 53 44 32 40 45 55 52 52 52 51 52 50 50 47 39 41 38 35 37 36 34 36 34 33 32 36 33 29 28 23
42 43 42 42 43 45 47 48 48 50 53 54 51 57 52 53 55 46 46 40 54 49 50 49 53 55 50 41 42 39 39 38 39 37 36 36 36 33 33 37 32 29 26 26
42 42 39 36 41 45 45 47 48 47 45 47 55 60 59 53 52 52 53 51 47 41 44 44 57 55 47 45 41 37 40 40 37 36 35 38 37 35 33 37 28 29 29 28
43 41 42 44 44 39 48 41 39 43 48 52 47 58 56 51 46 47 50 45 48 36 41 53 55 48 50 47 42 42 43 42 42 38 38 40 35 36 34 37 31 32 29 27
44 46 47 47 46 44 49 42 40 45 50 51 52 53 48 47 47 46 42 44 43 44 47 50 49 46 44 46 44 45 46 44 43 38 41 37 37 35 36 37 33 31 31 28
51 51 50 48 44 42 47 49 47 51 50 54 43 42 43 40 35 36 26 36 39 50 56 45 44 45 50 47 45 43 42 41 39 38 39 37 37 34 37 37 32 30 30 26
52 52 51 43 37 37 29 41 41 37 50 55 40 40 37 33 25 30 36 32 38 45 47 41 42 39 41 43 43 44 42 41 40 40 38 39 40 34 37 37 29 32 30 27
52 51 42 37 37 45 39 39 39 37 40 40 32 40 38 28 29 39 29 40 44 39 34 39 41 37 41 43 44 44 44 45 42 43 42 45 37 35 36 34 30 33 30 28
51 49 47 40 38 38 26 38 37 39 38 33 34 35 30 31 34 34 42 45 49 35 27 37 39 42 42 43 43 41 46 45 43 43 41 38 38 35 36 32 30 34 32 29
49 49 44 39 39 30 41 35 29 32 34 34 26 29 22 23 30 37 46 52 54 42 33 33 39 41 40 43 46 46 45 45 49 50 49 43 36 35 36 32 30 35 29 29
44 40 38 31 31 33 26 22 40 36 30 33 27 22 25 24 33 31 46 51 53 49 44 48 47 41 39 41 43 45 42 43 42 39 40 37 35 35 37 33 31 35 31 30
38 33 25 18 13 25 28 17 26 33 22 35 34 27 27 28 32 36 39 33 40 42 48 45 41 36 40 39 39 43 39 40 47 44 40 35 36 35 38 35 32 35 33 31
18 11 14 8 2 19 30 30 30 24 35 18 26 28 33 30 36 31 40 40 39 38 36 34 31 32 34 38 31 33 34 36 39 43 45 38 37 36 38 36 33 34 33 36
15 16 18 15 12 16 19 27 32 32 31 30 23 31 18 36 36 44 36 26 45 42 36 29 29 31 35 34 30 31 33 36 36 38 38 40 39 36 39 37 33 32 34 35
4 6 9 13 19 18 20 18 15 22 21 33 30 33 11 20 37 29 8 26 32 33 27 26 31 39 35 33 33 30 31 32 31 32 37 40 38 42 42 39 35 31 35 36
7 13 14 16 18 18 29 30 25 22 22 32 37 38 20 4 17 10 16 30 29 24 28 31 37 38 38 36 35 33 33 31 30 31 33 41 44 40 41 38 36 32 35 37
8 8 12 13 15 13 11 11 17 27 22 24 27 26 30 24 21 24 22 27 30 32 36 34 39 44 47 47 45 40 36 34 31 32 35 39 39 41 39 38 36 36 36 38
7 9 12 12 11 8 5 5 15 19 26 23 30 24 21 30 28 30 30 30 33 36 37 44 49 53 56 56 53 47 40 36 34 32 36 39 37 39 37 38 39 38 38 41
7 3 4 4 3 2 2 5 8 10 24 31 32 40 37 30 25 31 29 31 36 42 51 54 61 64 66 63 55 50 44 38 35 33 34 38 38 38 37 38 41 38 39 43
5 3 6 1 2 4 9 7 8 6 5 14 25 36 44 42 34 36 37 43 49 48 51 55 57 63 60 54 48 43 40 40 36 34 34 36 37 36 36 38 38 39 43 46
5 8 7 3 8 9 7 7 6 4 10 15 13 20 22 26 33 38 35 30 24 24 25 27 30 34 40 43 45 42 39 38 37 36 35 34 36 34 38 39 40 42 47 48
10 5 3 6 8 6 1 7 7 10 8 11 10 14 10 8 5 10 14 15 17 20 22 22 23 26 29 31 34 39 39 38 38 38 38 38 36 37 50 37 36 47 50 51
8 8 7 6 8 8 8 4 10 5 5 5 5 8 2 2 2 5 9 14 17 19 21 26 27 25 28 29 28 28 33 35 37 40 40 39 38 42 45 46 45 51 51 50
3 0 4 3 2 5 10 8 8 9 11 6 3 5 5 6 9 8 11 16 19 21 22 24 25 25 26 28 27 28 29 29 32 37 38 39 41 40 42 42 46 53 57 49
6 6 5 3 2 3 5 6 8 6 6 7 4 7 9 9 11 13 17 20 24 23 22 24 26 24 27 27 26 29 25 33 31 32 33 37 46 39 44 49 54 54 52 47
7 8 7 5 5 6 5 7 10 10 6 9 12 11 10 14 15 17 19 25 25 25 22 23 22 22 19 18 25 31 28 28 27 29 32 31 36 41 39 48 73 56 54 50

GFSCGP_500_spd_129.txt.gz
Wind_Speed
42 43 43 42 43 45 49 51 51 48 45 51 51 55 57 54 51 47 50 47 50 50 56 58 60 60 53 52 49 48 42 42 41 37 31 32 32 32 31 31 33 30 33 30
42 44 44 46 47 47 47 49 49 47 49 52 52 53 54 52 46 49 49 50 53 52 52 54 55 57 57 54 53 48 40 40 39 37 33 29 33 32 30 32 30 32 33 28
44 43 45 45 45 47 47 47 47 46 46 50 51 55 51 44 51 44 48 50 52 54 49 40 46 58 59 59 55 40 41 40 38 37 37 38 34 29 27 29 33 34 33 29
42 41 44 45 47 48 49 43 46 50 51 53 44 54 47 46 44 44 47 48 48 50 52 39 48 54 58 61 50 34 41 39 39 37 35 36 33 30 30 33 36 33 34 30
42 45 47 50 51 50 53 48 49 50 53 54 53 54 41 43 44 41 38 38 44 53 52 48 56 53 51 55 37 37 40 40 39 38 38 39 36 35 35 35 36 32 35 29
47 50 52 54 53 51 49 49 50 50 47 53 54 57 54 45 40 32 33 34 36 48 52 59 54 53 51 44 34 35 37 40 39 40 40 41 39 39 37 35 34 34 34 26
48 49 51 51 57 56 50 51 50 42 47 50 42 51 57 51 37 29 28 34 32 37 40 49 47 44 47 42 35 39 39 38 36 36 36 36 35 35 36 35 33 36 32 26
54 53 53 54 50 53 50 41 33 37 44 45 37 44 46 44 37 37 33 30 34 35 38 47 42 34 40 35 35 37 42 47 37 34 34 35 36 34 38 36 41 40 29 27
60 60 56 54 49 45 44 38 40 45 43 47 47 38 33 17 24 24 35 36 36 38 45 47 34 32 39 44 44 41 41 38 38 35 36 37 39 39 39 40 42 38 30 28
61 64 61 58 49 38 41 38 36 35 25 36 36 35 21 18 18 27 36 44 39 39 43 44 37 33 36 36 36 38 37 37 40 38 39 40 39 39 36 37 37 36 30 27
51 52 52 39 24 23 37 32 34 41 44 31 24 14 18 24 21 27 31 35 39 45 45 40 34 33 40 45 46 40 43 46 44 44 43 43 45 41 40 39 38 37 32 26
20 18 16 9 12 18 14 28 33 20 21 41 46 27 25 24 28 33 34 41 36 47 50 47 47 47 43 40 42 38 38 41 43 41 40 39 38 35 37 40 39 38 33 28
16 15 11 5 6 20 19 18 30 16 10 16 32 33 30 31 26 34 36 43 34 48 40 42 46 46 47 44 36 36 36 33 32 37 41 39 41 39 34 32 35 36 33 30
16 8 15 15 16 8 8 12 27 32 27 23 24 33 27 23 27 28 32 38 29 41 44 48 41 36 39 35 22 24 24 28 30 31 34 36 35 39 43 36 36 36 32 29
10 5 5 8 12 13 15 18 14 13 26 28 19 28 27 10 21 25 35 34 36 34 43 41 40 41 40 33 27 26 24 25 28 30 33 34 34 34 36 40 37 36 30 29
9 13 11 11 14 17 18 19 21 22 20 21 26 30 28 23 19 19 21 21 29 43 47 48 42 35 38 39 33 33 31 26 22 26 30 33 31 32 35 40 39 34 30 32
16 17 14 8 10 8 9 15 4 11 22 23 21 24 33 16 14 18 10 8 24 18 20 17 22 29 35 37 38 38 36 32 27 23 28 32 32 34 39 43 39 31 33 36
5 10 13 6 7 6 3 3 5 11 23 26 25 24 24 18 15 15 18 17 17 18 22 27 29 33 37 37 39 40 39 39 38 35 31 32 35 36 36 42 42 39 39 38
4 4 5 3 2 2 7 1 1 7 11 16 21 26 29 23 25 25 18 23 26 28 29 32 35 37 43 46 46 47 48 52 47 42 33 33 35 38 37 38 44 42 41 40
8 6 14 6 3 5 5 8 9 10 11 3 8 14 16 21 25 29 32 29 29 31 31 33 42 46 47 48 53 55 59 65 61 46 33 33 35 39 42 38 40 41 41 38
8 9 2 9 4 6 11 14 10 8 10 14 13 15 9 14 10 11 14 25 35 38 37 27 26 36 45 50 57 66 70 71 59 45 37 33 34 39 43 41 41 42 39 44
9 6 5 7 7 4 8 10 3 8 11 5 9 9 7 6 4 3 1 1 7 12 16 18 23 28 34 47 56 45 37 42 49 46 40 37 35 39 42 40 42 43 37 36
12 5 5 9 10 8 10 11 11 12 5 1 6 3 6 8 7 7 7 8 10 15 20 21 24 27 30 33 37 37 37 36 37 40 41 42 40 41 42 40 41 44 39 42
10 7 6 8 10 10 8 10 8 9 11 9 3 4 6 7 7 6 7 11 17 20 20 21 25 28 33 33 35 36 35 35 35 34 34 38 41 43 43 42 44 44 48 38
9 7 9 8 8 10 8 7 8 8 5 8 9 8 10 11 12 14 16 18 21 22 25 25 27 28 32 32 31 33 30 28 29 30 30 28 36 43 43 43 42 40 48 54
10 8 8 7 6 8 9 6 7 7 8 8 13 13 14 16 19 20 21 22 25 27 26 26 30 28 26 21 23 22 22 21 31 30 26 28 32 36 40 42 43 42 46 52

GFSCGP_500_spd_132.txt.gz
Wind_Speed
44 45 42 44 47 48 50 52 52 49 45 55 54 54 54 55 60 61 54 52 50 48 47 57 63 61 61 59 58 58 53 49 47 39 38 33 32 36 37 37 37 33 31 29
43 41 42 45 47 48 49 50 50 48 48 54 55 57 55 52 58 53 48 48 47 42 42 49 55 59 64 62 62 61 59 54 46 42 40 35 34 37 39 38 37 33 32 30
43 40 44 46 47 48 47 52 52 52 53 55 58 60 55 51 54 51 49 44 45 45 44 50 52 53 55 56 57 60 58 58 49 44 46 39 34 35 38 35 38 39 35 32
41 42 45 46 47 50 49 51 53 54 55 56 57 62 52 53 50 47 47 39 42 47 50 57 51 54 57 48 53 56 52 49 42 44 46 41 37 36 37 38 40 41 33 30
42 43 44 47 49 53 52 55 57 56 56 58 55 64 55 56 54 53 48 37 39 46 55 61 46 53 55 57 53 51 49 41 37 39 41 42 41 38 35 37 36 38 34 32
44 46 49 52 52 54 57 56 54 53 52 55 58 54 57 57 58 58 51 45 37 41 51 52 55 55 57 60 58 50 48 45 40 39 41 41 41 39 35 36 37 40 39 37
43 44 48 52 53 53 55 57 59 61 54 52 49 45 59 50 40 38 48 46 35 39 45 44 49 50 51 58 57 48 46 39 33 37 35 37 40 40 38 38 41 41 40 35
46 46 48 50 53 56 54 52 47 52 54 48 34 40 32 33 33 26 39 47 41 33 43 40 44 50 48 53 60 37 41 37 36 38 33 36 39 39 36 39 38 39 37 34
47 45 51 56 56 48 50 51 50 44 40 41 33 31 34 38 36 32 24 36 37 34 36 39 42 43 51 55 50 39 37 38 33 30 38 46 46 37 36 38 38 36 35 35
53 51 53 58 60 56 38 47 49 43 40 34 22 17 26 32 24 24 19 28 31 36 39 41 41 44 40 41 41 39 42 39 35 39 44 47 43 39 36 39 37 36 39 41
53 54 47 44 40 40 28 35 35 32 30 32 34 38 20 22 26 26 22 31 39 37 40 39 42 38 40 37 36 42 42 36 42 43 39 34 33 34 40 42 42 42 41 40
42 38 29 19 19 10 9 14 21 28 19 15 32 34 39 30 27 27 29 30 40 44 49 46 34 47 41 44 40 44 43 39 38 39 41 42 39 42 41 42 43 42 43 40
27 20 14 9 10 8 11 14 8 18 31 18 7 23 34 42 37 31 26 31 45 58 51 44 47 49 48 47 48 44 39 39 43 45 43 41 46 48 45 42 41 41 42 42
6 7 10 12 9 14 15 5 12 13 11 24 23 22 23 36 40 31 35 34 41 45 54 51 49 48 47 50 49 41 40 40 42 41 36 37 37 39 42 42 43 41 40 42
6 6 12 13 11 10 7 12 12 14 17 23 25 28 21 17 23 14 20 10 23 29 30 36 34 30 44 44 43 35 38 38 32 28 24 30 33 34 37 38 42 45 42 39
8 12 14 8 12 10 12 16 17 17 15 18 22 30 33 26 19 6 12 26 21 24 30 31 26 24 26 32 34 36 37 37 36 30 23 20 27 34 35 38 38 43 46 42
15 12 10 6 11 9 7 7 6 4 15 16 23 25 23 20 18 20 16 12 12 18 23 20 22 30 29 31 34 35 40 43 41 34 34 26 25 31 37 39 39 42 42 43
6 10 8 8 8 6 8 10 8 9 13 16 17 16 17 11 14 17 20 18 13 15 21 24 25 25 31 36 40 46 47 44 45 39 38 23 25 31 38 41 40 42 39 42
8 7 6 10 8 6 7 4 7 7 9 10 15 10 10 16 18 18 17 19 18 16 17 18 18 27 29 32 36 41 44 45 41 43 40 41 47 38 36 41 41 43 42 44
7 6 10 12 8 9 10 11 8 9 10 13 6 8 15 11 11 12 16 24 24 26 28 32 33 31 30 32 37 41 43 44 46 46 48 47 51 48 38 39 44 43 44 45
10 12 10 7 8 9 8 11 8 9 7 12 17 17 18 11 8 6 7 9 15 21 24 28 31 33 37 38 40 43 46 45 50 52 52 56 60 53 41 40 44 46 43 44
7 11 8 9 11 5 6 7 8 10 7 7 6 3 9 12 7 4 4 2 2 7 12 16 22 25 26 28 35 41 46 46 49 55 58 63 66 64 44 43 45 47 46 44
9 11 8 8 9 7 7 9 8 11 7 4 4 4 7 9 6 3 2 4 6 7 11 16 21 25 25 27 31 34 37 41 45 53 57 61 58 51 44 47 47 48 49 46
10 10 10 13 12 8 9 10 7 9 6 4 3 3 5 6 5 6 7 10 14 18 19 20 22 23 25 27 29 34 38 46 48 48 47 49 51 50 44 51 52 49 49 48
12 11 10 11 8 8 9 8 10 8 8 5 8 10 9 9 10 13 16 17 19 21 23 26 28 28 29 32 35 36 39 42 41 39 43 47 47 48 44 50 58 54 51 50
11 12 10 10 8 9 9 7 8 10 12 12 14 14 13 12 13 16 17 17 19 22 24 25 26 27 28 31 31 32 29 29 30 33 32 33 32 31 37 44 56 57 53 50

GFSCGP_500_spd_135.txt.gz
Wind_Speed
47 47 43 48 47 48 50 50 49 46 47 55 53 54 50 52 56 57 55 51 50 45 41 48 57 64 67 67 77 77 66 66 64 55 50 45 39 44 38 35 36 39 38 38
49 44 46 45 45 45 46 49 50 51 53 57 56 56 50 50 53 52 53 53 53 53 46 45 46 54 58 55 58 53 63 69 66 61 57 54 45 43 35 43 43 39 38 40
45 43 45 44 44 45 47 50 51 52 53 54 56 55 50 48 51 53 54 54 53 55 58 51 45 48 52 54 57 49 49 61 58 59 59 53 48 44 45 48 47 43 42 41
42 44 41 43 47 49 50 51 51 52 54 56 57 63 53 50 50 53 55 56 58 57 53 48 49 45 44 47 51 51 51 52 59 56 63 59 50 48 47 49 48 46 42 41
42 41 42 47 48 50 52 52 54 55 55 58 53 64 53 53 55 58 59 60 59 61 59 51 50 45 43 49 55 49 53 55 56 54 54 51 53 48 48 47 47 46 46 42
42 43 46 48 49 51 53 56 57 57 58 63 56 64 62 56 65 64 66 65 65 62 58 51 47 46 46 48 55 54 55 50 51 46 46 43 49 49 44 42 44 46 49 46
41 44 48 51 52 53 56 60 62 63 63 65 63 67 67 64 62 64 65 64 61 63 60 51 49 45 47 51 55 56 54 52 53 48 49 43 47 52 43 40 42 47 48 45
44 45 47 50 53 56 54 57 60 66 67 69 66 70 63 54 52 54 56 52 49 48 54 51 48 46 46 51 52 59 59 58 50 51 54 49 48 49 37 36 35 41 46 44
45 48 51 51 55 57 56 60 60 62 66 69 69 65 43 37 43 46 49 40 38 34 42 47 43 45 46 50 57 59 53 51 45 41 37 44 47 49 39 35 38 40 43 44
43 43 49 54 58 58 60 59 55 51 51 51 42 30 33 31 26 28 40 35 34 34 40 41 45 46 46 45 42 42 50 50 41 31 33 37 36 43 40 38 39 42 42 41
45 46 50 53 51 53 48 42 32 21 16 19 18 23 26 29 34 25 21 32 32 25 33 40 44 45 42 39 41 43 43 40 30 29 36 34 41 40 41 47 47 38 39 41
46 49 48 44 31 30 25 11 10 12 19 19 16 12 20 28 31 31 27 25 23 22 29 37 44 44 42 44 40 40 42 37 34 39 39 39 42 46 48 45 49 53 44 45
45 39 31 16 19 18 10 8 8 18 8 15 28 28 21 18 22 24 25 14 22 19 38 52 44 43 48 48 50 40 44 40 43 41 37 42 34 31 36 37 43 43 48 44
33 17 9 12 14 12 12 16 18 13 21 23 22 28 28 28 20 14 18 27 24 15 48 40 32 45 38 40 54 48 47 50 45 38 37 39 33 38 36 36 40 47 47 49
13 10 10 16 19 14 11 12 14 15 16 20 14 23 23 24 22 12 7 16 17 14 13 38 41 41 40 36 37 50 49 52 47 42 40 37 37 32 27 30 37 39 46 53
9 9 17 19 18 16 15 13 14 18 11 18 18 18 19 16 17 25 16 6 14 22 20 27 28 51 55 56 49 50 55 51 46 41 39 38 33 28 17 20 30 38 42 46
10 14 12 10 14 16 14 11 8 12 2 16 15 16 15 11 11 18 23 15 14 14 19 22 28 25 35 35 33 33 39 43 40 38 38 35 32 30 30 25 23 30 38 41
12 11 9 7 13 11 9 13 16 13 16 16 15 16 15 10 13 10 15 16 20 18 16 16 21 22 25 27 30 31 34 32 36 35 34 34 35 36 36 35 26 27 36 39
10 12 10 10 14 12 13 12 14 17 12 15 14 14 6 9 15 19 14 15 19 21 19 11 13 13 15 18 19 25 30 29 31 35 38 41 41 37 42 38 31 30 36 40
7 6 9 10 10 11 14 19 16 17 15 15 12 12 13 20 11 13 15 14 22 20 22 21 21 21 23 24 23 28 32 34 36 38 35 35 37 38 42 42 40 43 39 39
7 12 12 11 11 15 16 13 11 9 13 15 14 13 15 15 9 11 16 13 17 19 20 24 27 26 27 27 30 33 34 37 40 43 43 44 43 42 44 45 46 50 50 41
8 11 11 8 9 12 13 14 10 10 9 7 6 3 5 6 5 3 8 8 8 11 15 21 25 28 27 26 29 32 37 41 46 46 46 46 45 46 49 54 56 51 53 51
6 10 12 9 9 12 11 8 6 7 8 5 5 3 5 6 6 6 3 3 4 6 9 13 18 21 23 25 28 33 36 40 42 46 49 47 46 50 51 57 60 60 59 61
8 12 13 11 11 7 5 5 7 6 7 9 4 5 7 7 7 8 9 11 14 18 19 20 22 23 25 27 31 34 37 40 44 47 48 49 51 49 49 59 63 63 66 71
9 12 13 12 10 6 6 6 4 4 7 8 7 9 9 10 10 11 13 15 17 19 21 23 25 26 27 29 30 32 34 40 43 44 46 49 51 51 51 56 57 61 68 67
7 9 12 11 9 7 7 5 6 8 9 10 10 11 11 12 14 14 15 15 15 16 18 20 23 25 25 26 29 30 34 35 34 35 35 33 32 32 36 42 48 50 51 53

GFSCGP_500_spd_138.txt.gz
Wind_Speed
51 52 55 55 52 52 52 52 53 52 51 54 51 52 46 44 47 50 51 48 48 46 41 41 43 49 53 56 61 66 70 67 64 64 63 60 53 55 51 43 43 45 45 46
49 51 53 53 55 56 54 54 54 53 49 50 49 49 48 48 48 47 46 47 51 54 51 47 47 46 45 44 52 58 65 70 72 68 68 66 66 63 59 57 50 48 46 45
52 53 53 51 48 48 47 48 49 51 52 49 52 52 50 50 51 51 50 53 54 56 57 57 54 51 48 45 41 44 52 63 60 56 61 64 59 67 66 55 57 42 42 41
48 49 48 48 48 46 45 46 48 51 53 54 55 61 50 49 55 56 58 58 59 59 59 58 58 56 56 53 50 44 44 51 59 53 57 58 58 55 58 49 49 42 46 47
44 43 43 44 44 46 47 50 52 52 54 57 55 64 54 55 65 64 63 62 62 62 61 60 60 59 59 56 54 49 46 47 52 52 57 55 57 50 50 54 51 53 50 50
41 42 43 45 46 47 49 50 52 55 58 59 57 68 61 60 66 65 66 66 66 67 65 64 64 64 61 58 55 53 47 48 49 50 49 52 52 46 46 48 49 53 54 50
43 43 44 45 45 48 51 53 57 58 61 61 62 66 66 64 66 69 70 71 71 71 71 71 71 67 65 62 62 53 50 50 49 55 51 45 52 50 52 47 40 43 57 54
40 42 44 46 48 51 53 54 55 58 60 62 60 67 65 68 71 74 77 77 77 77 74 63 63 61 59 59 58 55 50 54 54 57 54 54 53 52 52 45 39 36 54 51
43 46 46 48 50 50 51 53 57 60 61 64 63 65 68 68 64 67 67 64 53 52 48 46 39 48 53 53 55 52 51 53 54 55 52 56 45 50 45 43 44 44 46 51
42 45 47 48 49 51 53 55 55 55 54 52 50 48 35 28 32 32 33 31 24 29 34 35 38 36 44 48 57 56 52 51 51 52 50 40 34 37 40 42 41 42 41 51
42 42 46 48 50 52 53 51 51 50 28 23 24 15 13 16 22 26 27 28 23 19 22 28 36 32 42 49 54 50 48 47 44 41 37 38 35 37 38 29 39 45 47 43
40 43 47 50 48 48 47 37 33 26 16 12 19 20 19 22 27 21 23 19 17 12 18 25 30 29 44 38 42 43 42 36 36 34 41 33 32 31 27 29 30 33 48 49
41 44 45 44 40 33 30 24 19 16 18 22 22 25 20 21 25 16 11 10 20 15 23 12 27 35 47 42 44 41 39 41 36 39 37 33 33 30 29 27 15 22 29 50
42 42 40 32 28 22 18 20 19 21 20 18 20 20 17 19 23 13 13 12 3 11 13 14 33 37 36 39 49 39 43 53 35 34 36 35 36 32 32 27 25 29 28 31
37 32 26 19 22 22 21 17 19 19 21 25 24 23 19 11 16 23 21 18 13 12 13 26 26 30 21 32 36 42 47 49 41 35 38 38 36 34 33 29 28 30 23 27
25 16 16 18 21 18 18 17 17 18 16 22 23 18 16 15 13 17 17 23 12 14 20 16 15 25 22 19 40 48 52 54 49 49 41 39 44 41 36 31 32 24 21 15
15 15 15 12 12 16 15 14 13 17 20 17 15 16 19 19 12 13 17 17 23 13 17 17 20 18 16 24 28 33 32 36 41 43 49 46 42 43 37 32 31 25 25 23
10 8 10 8 10 18 13 14 16 19 20 19 17 17 19 21 17 14 14 14 16 18 13 13 15 16 13 14 22 20 23 28 31 36 41 41 43 39 36 34 34 32 31 32
8 11 13 10 13 14 14 14 17 23 23 19 20 21 21 18 14 13 18 15 15 15 15 14 14 15 14 14 12 15 20 23 29 32 34 39 40 33 33 33 36 34 35 33
8 10 11 10 12 14 15 22 20 20 17 15 18 16 18 19 21 19 18 17 16 13 15 14 15 17 20 20 19 19 18 21 24 27 30 31 34 34 33 33 33 30 29 30
8 8 7 9 10 11 15 17 18 18 16 16 16 16 15 13 13 10 13 20 22 17 21 22 23 23 25 25 26 24 25 25 27 29 30 30 31 32 34 36 37 37 36 38
8 10 12 12 11 12 14 18 17 12 11 10 10 9 9 7 9 9 7 9 14 16 20 24 24 23 24 25 26 27 28 28 27 29 33 38 39 41 41 42 42 40 40 43
10 10 10 11 11 12 15 17 12 9 9 7 7 9 11 7 6 8 8 9 8 11 13 13 15 17 19 21 24 27 28 29 33 34 36 38 42 46 49 47 46 47 51 51
12 10 10 11 9 11 11 12 9 9 7 7 8 11 11 11 11 11 11 12 14 16 16 18 19 21 22 23 25 27 28 30 33 35 38 41 45 47 49 52 53 52 55 59
14 10 10 11 10 10 8 10 9 8 8 9 11 12 12 11 11 13 15 18 19 19 21 22 23 25 26 28 30 29 29 30 34 37 41 43 45 48 52 57 57 58 57 57
18 12 9 11 9 9 10 8 9 11 10 12 14 13 12 13 15 16 17 18 19 19 20 21 21 22 23 24 29 28 29 32 36 39 42 44 44 43 44 45 48 52 56 56

GFSCGP_500_spd_141.txt.gz
Wind_Speed
45 46 45 45 46 47 50 53 54 54 53 51 50 51 53 48 52 50 49 46 46 44 44 45 45 46 46 48 52 54 55 56 59 60 59 58 50 51 52 51 55 54 52 47
48 49 48 48 47 49 51 51 50 51 52 54 53 53 53 50 48 52 51 51 50 47 45 45 44 45 47 47 48 49 51 53 55 59 58 62 63 57 58 59 58 57 54 48
49 49 48 50 52 53 55 55 56 56 52 52 56 52 54 48 48 50 50 51 52 52 52 50 49 49 50 51 51 49 46 46 47 42 49 57 59 61 62 57 63 62 59 50
46 47 49 51 53 52 51 51 51 51 52 54 53 53 48 52 56 52 53 54 53 53 55 56 56 55 55 55 54 50 48 46 43 41 43 49 52 57 56 53 54 58 49 52
43 44 44 44 44 46 47 47 48 48 49 52 53 53 47 52 62 60 60 60 61 61 61 59 58 60 59 57 57 56 52 48 43 46 44 48 50 53 51 54 59 59 60 52
40 42 42 43 43 45 46 47 48 49 51 53 53 55 54 56 59 64 66 68 69 69 67 66 65 62 62 60 62 60 55 51 48 46 46 48 53 55 54 57 56 52 62 51
40 40 41 41 44 46 46 47 49 51 53 55 56 59 55 56 58 63 66 69 70 72 70 70 68 68 69 66 63 61 59 55 51 51 48 49 55 52 53 57 69 48 32 45
38 40 42 44 44 44 45 46 48 53 55 55 54 57 58 60 62 65 67 69 73 75 76 78 78 75 77 76 71 67 65 63 58 55 49 47 44 45 48 50 34 42 40 42
40 41 42 44 45 46 49 49 49 51 54 54 54 57 57 57 57 58 62 67 68 69 69 66 68 60 56 69 76 76 70 61 60 58 56 52 50 52 53 55 52 45 49 46
41 43 43 45 47 48 48 49 49 51 50 51 52 52 50 40 33 24 24 25 29 31 24 20 17 32 34 35 41 50 59 52 51 55 56 54 50 51 50 46 53 42 48 43
42 42 44 44 44 46 47 49 50 50 44 42 46 38 30 23 23 22 17 12 12 16 13 16 24 23 27 36 33 39 48 44 47 44 50 50 51 48 45 44 37 33 36 38
40 39 39 42 44 46 48 45 44 42 32 26 25 29 23 21 23 14 13 15 14 12 19 18 24 18 27 29 40 40 43 55 45 42 45 48 48 43 35 34 31 33 33 30
37 37 39 41 43 42 39 37 28 25 26 25 26 23 19 19 19 24 25 19 20 8 13 18 23 25 18 24 45 45 41 46 49 50 46 43 39 36 40 27 25 25 28 32
33 36 39 40 41 35 21 23 26 26 21 21 23 18 22 26 25 25 23 29 29 17 15 15 18 20 18 15 31 46 31 33 39 39 40 36 36 37 31 32 28 24 24 22
32 37 37 38 31 24 17 18 22 22 21 23 21 24 28 28 24 25 21 24 23 23 19 15 15 13 16 13 19 48 43 44 45 51 50 49 38 42 32 32 26 27 25 27
35 33 31 29 23 16 14 15 15 17 16 18 23 21 19 15 19 21 23 24 22 23 23 17 19 17 15 13 17 28 40 46 52 45 35 42 35 33 32 33 31 33 28 23
30 29 24 20 12 9 11 12 12 15 17 20 22 21 24 22 22 21 21 24 20 18 21 17 16 12 9 8 16 27 39 43 46 44 42 42 43 40 35 34 39 44 29 25
25 20 14 13 9 10 12 11 15 19 22 25 26 24 23 24 23 23 19 22 19 15 13 14 15 14 10 9 6 9 22 28 33 36 40 44 46 45 43 42 43 39 31 28
19 13 10 11 11 12 11 11 16 20 18 19 20 19 22 22 18 16 24 23 22 16 12 8 13 14 10 10 9 9 9 13 15 21 27 35 38 37 39 38 37 38 36 32
13 9 9 11 15 16 15 15 17 18 18 19 20 18 18 19 19 15 17 14 25 26 20 12 14 14 14 15 15 14 15 17 13 11 12 14 18 22 29 35 38 37 36 31
11 8 9 11 13 14 14 13 16 16 18 16 16 15 15 15 15 15 14 10 10 17 21 20 21 23 24 20 20 20 17 18 19 20 18 19 21 23 24 24 25 26 34 32
12 10 12 14 15 15 14 15 16 17 13 14 14 12 15 15 13 12 12 9 8 9 13 18 18 19 22 24 25 25 24 24 24 24 25 27 28 29 31 33 33 34 34 35
14 12 12 12 14 15 16 19 20 15 13 12 12 13 14 14 12 12 13 12 12 14 15 15 16 18 19 20 22 23 26 27 28 30 32 34 37 40 38 38 41 44 46 47
15 14 13 12 14 15 15 16 14 14 13 10 13 13 14 15 14 13 12 12 12 13 15 16 16 16 18 19 20 21 23 23 23 27 29 29 31 36 40 42 45 47 49 51
18 18 16 13 11 15 15 15 14 14 12 14 15 14 15 15 15 16 17 19 20 20 21 21 20 19 19 21 21 21 21 24 27 26 27 30 33 37 41 44 45 47 50 54
23 23 19 15 11 13 14 14 15 15 13 16 16 15 16 16 17 19 19 20 21 21 21 21 21 21 21 22 24 25 26 28 28 29 32 33 36 37 40 40 40 39 38 43

GFSCGP_500_spd_144.txt.gz
Wind_Speed
42 41 43 42 41 40 41 44 45 46 45 45 44 48 48 50 51 53 53 51 48 45 44 45 45 46 47 48 51 53 54 55 56 56 56 56 53 52 48 44 40 43 45 48
41 44 46 46 44 45 47 48 50 49 48 48 50 48 51 55 52 54 53 50 50 49 45 44 46 48 49 50 52 53 54 56 58 58 57 57 55 54 52 50 42 48 49 51
37 40 41 42 42 44 47 49 51 53 52 47 52 47 53 53 52 51 50 52 53 54 52 51 49 48 49 51 52 52 53 52 53 56 58 59 57 53 51 45 42 47 52 55
37 37 38 38 38 42 45 45 48 49 49 47 50 49 49 53 56 55 55 54 55 54 56 56 53 52 52 52 52 52 52 53 53 54 57 55 52 50 45 46 42 46 49 52
42 43 43 44 48 49 46 46 46 46 44 46 48 52 51 57 60 61 62 62 61 61 60 57 56 56 54 55 55 56 56 54 54 56 55 54 51 49 46 45 51 49 47 55
43 46 46 47 46 45 44 43 43 45 46 49 54 50 50 55 61 65 67 67 66 65 63 62 59 57 57 57 57 59 60 58 57 58 55 53 52 51 51 49 54 49 52 58
41 42 43 43 44 42 41 43 45 47 51 51 54 54 52 57 59 63 65 65 67 67 67 66 65 63 61 60 59 60 62 60 58 60 58 54 49 52 54 53 52 54 53 54
43 43 42 42 42 43 43 43 43 46 49 51 53 54 56 58 60 61 63 64 66 67 69 71 71 71 71 71 69 67 67 66 64 64 61 56 50 52 51 51 54 56 53 57
45 46 45 43 42 42 43 45 47 48 50 50 51 52 52 54 54 56 58 59 60 61 61 62 65 73 74 73 73 77 77 74 77 71 64 62 56 54 52 50 53 54 56 54
42 43 42 41 41 41 44 46 46 47 48 50 51 51 48 45 44 48 49 48 47 38 32 27 27 28 26 33 33 38 43 45 41 53 64 65 63 53 49 47 49 42 49 55
40 38 38 40 40 41 43 44 45 46 45 47 48 36 35 40 38 38 38 34 30 29 24 25 29 24 27 31 31 31 31 35 43 36 47 54 57 61 54 48 48 43 47 51
40 38 38 38 40 40 40 40 43 46 45 43 43 41 34 36 30 22 24 29 32 28 22 24 25 26 21 25 23 32 25 31 35 40 50 51 57 62 64 50 48 51 51 49
38 36 36 38 40 40 39 39 40 40 38 33 34 21 28 26 25 28 28 32 31 33 32 29 22 19 17 23 25 27 42 34 31 40 41 35 48 54 50 49 48 46 45 45
34 33 31 33 34 36 36 34 33 32 27 26 19 20 26 27 34 34 32 36 32 27 28 24 16 16 19 22 21 24 29 43 27 37 48 50 31 25 39 38 37 39 36 31
29 30 30 32 33 33 30 26 21 23 19 16 13 21 24 29 25 21 24 27 30 29 24 27 18 14 20 16 18 14 20 35 41 26 39 44 49 38 31 35 37 39 33 30
26 28 29 30 30 28 23 17 16 15 14 16 21 23 27 28 26 23 25 28 27 26 21 21 19 13 16 8 11 10 13 28 38 29 38 38 41 40 35 38 36 36 34 34
23 26 27 28 24 22 15 13 14 14 17 20 25 28 29 30 26 28 31 29 28 23 16 15 15 11 12 7 8 8 10 22 37 38 38 35 37 42 43 41 41 33 32 35
23 25 25 22 21 19 14 14 14 15 18 23 25 23 25 23 24 24 22 21 19 21 19 13 13 12 12 11 7 6 4 11 22 31 45 44 41 36 43 46 39 41 41 39
21 20 19 17 17 18 14 17 18 19 20 22 21 21 22 20 20 19 20 18 18 16 22 19 16 14 14 14 13 11 9 4 12 20 25 30 33 34 37 38 41 43 38 37
16 18 17 15 14 16 16 19 22 21 21 19 18 17 17 18 18 19 19 18 16 8 11 18 20 17 15 18 19 16 12 14 10 5 4 10 18 18 22 28 32 33 37 36
15 16 16 13 12 13 16 19 21 20 19 18 17 17 17 19 21 15 9 9 11 12 6 7 12 17 19 21 21 19 18 18 16 14 14 13 13 13 12 15 15 19 24 29
15 17 17 16 15 16 16 17 18 18 17 17 17 17 17 19 19 15 14 14 12 10 9 9 9 12 14 14 17 20 22 22 23 22 22 22 22 22 22 23 24 24 25 25
16 16 18 19 17 16 17 19 19 19 16 16 16 16 17 19 18 16 16 16 15 14 13 13 12 12 13 14 15 18 20 22 25 25 26 28 31 33 32 34 34 33 35 35
15 17 21 21 17 16 18 19 20 17 15 17 18 18 19 20 16 16 17 17 16 16 16 15 15 14 16 17 18 18 18 22 24 25 27 27 28 33 34 35 38 42 47 47
14 17 20 23 19 16 17 18 17 16 16 19 19 20 22 21 18 19 19 19 19 19 19 19 19 19 18 18 18 18 21 21 23 24 25 28 31 32 33 35 34 36 37 41
17 19 23 25 22 18 16 18 17 15 17 19 19 19 20 20 19 21 20 19 19 19 21 22 23 22 22 21 22 22 24 24 26 27 28 30 32 34 36 37 38 36 37 39